DAL55 RJAA-KEWR

Flight info

Callsign DAL55
Flight time 12h 31m
Altitude 33000
Route GULBO Y808 NOLAX Y812 ADNAP OTR5 KALNA 42N160E 45N170E 48N180E/N0477F350 50N170W 52N160W 53N150W 54N140W/N0463F370 DCT FRIED DCT 54N130W 53N120W DCT GUDOG DCT 50N106W DCT MOT DCT GEP/N0451F390 DCT ODI DCT KG78K DCT KG72M DCT EVOTE DCT NELLS DCT KEEHO J584 SLT FQM3
Aircraft A339/H-SADE1E2E3GHIJ3J5M1P2RWXY/LB2D1

Departure

Time 2026-04-21 05:09
Airport Narita International Airport (RJAA)

Arrival

Time 2026-04-21 17:40
Airport Newark Liberty International Airport (KEWR)
Time Latitude Longitude Altitude Speed Heading
2026-04-21 04:11 35.76135 140.38413 144 ft 0 kts 59°
2026-04-21 04:50 35.76131 140.38403 144 ft 2 kts 59°
2026-04-21 04:51 35.76123 140.38386 144 ft 2 kts 59°
2026-04-21 04:51 35.76115 140.38371 144 ft 2 kts 59°
2026-04-21 04:51 35.76107 140.38354 144 ft 2 kts 59°
2026-04-21 04:51 35.76101 140.38336 144 ft 2 kts 83°
2026-04-21 04:52 35.76101 140.38316 144 ft 2 kts 102°
2026-04-21 04:52 35.76106 140.38300 144 ft 2 kts 121°
2026-04-21 04:52 35.76116 140.38284 144 ft 2 kts 141°
2026-04-21 04:52 35.76123 140.38280 144 ft 1 kts 151°
2026-04-21 04:53 35.76125 140.38278 144 ft 0 kts 150°
2026-04-21 05:00 35.76121 140.38281 143 ft 2 kts 149°
2026-04-21 05:01 35.76101 140.38295 144 ft 4 kts 153°
2026-04-21 05:01 35.76063 140.38295 143 ft 6 kts 204°
2026-04-21 05:01 35.76030 140.38245 143 ft 8 kts 248°
2026-04-21 05:01 35.76004 140.38178 143 ft 8 kts 236°
2026-04-21 05:02 35.75949 140.38165 143 ft 9 kts 156°
2026-04-21 05:02 35.75888 140.38205 143 ft 10 kts 150°
2026-04-21 05:02 35.75822 140.38252 143 ft 11 kts 149°
2026-04-21 05:02 35.75751 140.38303 144 ft 12 kts 149°
2026-04-21 05:03 35.75676 140.38359 144 ft 12 kts 149°
2026-04-21 05:03 35.75597 140.38415 144 ft 13 kts 149°
2026-04-21 05:03 35.75515 140.38475 144 ft 13 kts 149°
2026-04-21 05:03 35.75426 140.38538 143 ft 14 kts 149°
2026-04-21 05:04 35.75337 140.38602 143 ft 14 kts 149°
2026-04-21 05:04 35.75245 140.38667 144 ft 15 kts 149°
2026-04-21 05:04 35.75153 140.38733 144 ft 15 kts 149°
2026-04-21 05:04 35.75062 140.38802 143 ft 15 kts 148°
2026-04-21 05:05 35.74970 140.38870 144 ft 15 kts 151°
2026-04-21 05:05 35.74875 140.38937 143 ft 15 kts 149°
2026-04-21 05:05 35.74781 140.39004 143 ft 15 kts 149°
2026-04-21 05:05 35.74686 140.39073 144 ft 15 kts 149°
2026-04-21 05:06 35.74592 140.39140 143 ft 15 kts 148°
2026-04-21 05:06 35.74501 140.39208 143 ft 14 kts 148°
2026-04-21 05:06 35.74419 140.39229 144 ft 11 kts 217°
2026-04-21 05:06 35.74385 140.39149 146 ft 8 kts 242°
2026-04-21 05:07 35.74368 140.39092 148 ft 6 kts 268°
2026-04-21 05:07 35.74388 140.39037 148 ft 7 kts 314°
2026-04-21 05:07 35.74423 140.39006 148 ft 0 kts 329°
2026-04-21 05:07 35.74425 140.39004 148 ft 0 kts 329°
2026-04-21 05:08 35.74432 140.39000 148 ft 1 kts 329°
2026-04-21 05:08 35.74448 140.38989 148 ft 8 kts 329°
2026-04-21 05:08 35.74680 140.38821 148 ft 69 kts 329°
2026-04-21 05:08 35.75269 140.38396 147 ft 124 kts 330°
2026-04-21 05:09 35.76153 140.37758 142 ft 170 kts 329°
2026-04-21 05:09 35.77275 140.36940 305 ft 195 kts 328°
2026-04-21 05:09 35.78433 140.36085 939 ft 193 kts 328°
2026-04-21 05:09 35.79579 140.35236 1543 ft 196 kts 328°
2026-04-21 05:10 35.80734 140.34393 2260 ft 192 kts 329°
2026-04-21 05:10 35.81858 140.33595 2949 ft 187 kts 329°
2026-04-21 05:10 35.83010 140.32783 3236 ft 195 kts 329°
2026-04-21 05:10 35.84206 140.31929 3548 ft 201 kts 329°
2026-04-21 05:11 35.85453 140.31033 3799 ft 213 kts 329°
2026-04-21 05:11 35.86780 140.30083 4068 ft 225 kts 330°
2026-04-21 05:11 35.88173 140.29069 4346 ft 238 kts 330°
2026-04-21 05:11 35.89625 140.28015 4567 ft 250 kts 330°
2026-04-21 05:12 35.91185 140.26906 4793 ft 263 kts 329°
2026-04-21 05:12 35.92775 140.25737 5173 ft 269 kts 329°
2026-04-21 05:12 35.94382 140.24568 5678 ft 269 kts 329°
2026-04-21 05:12 35.95990 140.23407 6194 ft 271 kts 329°
2026-04-21 05:13 35.97764 140.22557 6636 ft 277 kts 352°
2026-04-21 05:13 35.99685 140.22862 6954 ft 287 kts 20°
2026-04-21 05:13 36.01347 140.24298 7002 ft 297 kts 42°
2026-04-21 05:13 36.02799 140.26132 7045 ft 297 kts 43°
2026-04-21 05:14 36.04036 140.28168 7063 ft 296 kts 68°
2026-04-21 05:14 36.04413 140.30633 7195 ft 296 kts 91°
2026-04-21 05:14 36.04370 140.33205 7743 ft 296 kts 91°
2026-04-21 05:14 36.04325 140.35698 8491 ft 289 kts 90°
2026-04-21 05:15 36.04319 140.38168 9003 ft 289 kts 90°
2026-04-21 05:15 36.04327 140.40657 9419 ft 293 kts 89°
2026-04-21 05:15 36.04122 140.43170 9841 ft 296 kts 105°
2026-04-21 05:15 36.03338 140.45502 10296 ft 297 kts 120°
2026-04-21 05:16 36.02261 140.47710 10575 ft 306 kts 121°
2026-04-21 05:16 36.01127 140.49954 10790 ft 317 kts 121°
2026-04-21 05:16 35.99905 140.52286 11007 ft 328 kts 125°
2026-04-21 05:16 35.98496 140.54555 11153 ft 338 kts 130°
2026-04-21 05:17 35.96898 140.56746 11306 ft 349 kts 135°
2026-04-21 05:17 35.95197 140.58978 11452 ft 360 kts 136°
2026-04-21 05:17 35.93462 140.61246 11621 ft 371 kts 137°
2026-04-21 05:17 35.91670 140.63582 11868 ft 381 kts 138°
2026-04-21 05:18 35.89768 140.65948 12067 ft 389 kts 143°
2026-04-21 05:18 35.87656 140.68059 12298 ft 393 kts 150°
2026-04-21 05:18 35.85356 140.69864 12772 ft 391 kts 155°
2026-04-21 05:18 35.83025 140.71542 13280 ft 390 kts 156°
2026-04-21 05:19 35.80675 140.73212 13743 ft 392 kts 156°
2026-04-21 05:19 35.78319 140.74893 14202 ft 393 kts 156°
2026-04-21 05:19 35.75928 140.76608 14570 ft 397 kts 157°
2026-04-21 05:19 35.73541 140.78334 14962 ft 402 kts 155°
2026-04-21 05:20 35.71207 140.80354 15350 ft 412 kts 148°
2026-04-21 05:20 35.69065 140.82732 15788 ft 420 kts 141°
2026-04-21 05:20 35.67071 140.85371 16145 ft 427 kts 138°
2026-04-21 05:20 35.65090 140.88109 16497 ft 432 kts 138°
2026-04-21 05:21 35.63099 140.90877 16914 ft 434 kts 138°
2026-04-21 05:21 35.61100 140.93640 17393 ft 434 kts 139°
2026-04-21 05:21 35.59103 140.96384 17915 ft 433 kts 140°
2026-04-21 05:21 35.57062 140.99165 18273 ft 437 kts 139°
2026-04-21 05:22 35.55031 141.01924 18601 ft 441 kts 139°
2026-04-21 05:22 35.52945 141.04755 18944 ft 445 kts 139°
2026-04-21 05:22 35.50912 141.07600 19342 ft 451 kts 134°
2026-04-21 05:22 35.49328 141.11026 19642 ft 469 kts 115°
2026-04-21 05:23 35.48546 141.14906 19911 ft 480 kts 98°
2026-04-21 05:23 35.48269 141.19029 20285 ft 482 kts 95°
2026-04-21 05:23 35.48054 141.23129 20669 ft 485 kts 95°
2026-04-21 05:23 35.47818 141.27252 20994 ft 488 kts 96°
2026-04-21 05:24 35.47553 141.31363 21291 ft 491 kts 97°
2026-04-21 05:24 35.47253 141.35574 21587 ft 495 kts 97°
2026-04-21 05:24 35.46945 141.39757 21909 ft 497 kts 96°
2026-04-21 05:24 35.46629 141.44003 22227 ft 500 kts 97°
2026-04-21 05:25 35.46312 141.48206 22569 ft 502 kts 96°
2026-04-21 05:25 35.45983 141.52504 22906 ft 504 kts 96°
2026-04-21 05:25 35.45661 141.56773 23183 ft 507 kts 97°
2026-04-21 05:25 35.45334 141.61085 23475 ft 510 kts 97°
2026-04-21 05:26 35.45000 141.65398 23777 ft 512 kts 97°
2026-04-21 05:26 35.44659 141.69780 24081 ft 513 kts 98°
2026-04-21 05:26 35.44338 141.74126 24375 ft 515 kts 96°
2026-04-21 05:26 35.44177 141.78522 24664 ft 517 kts 93°
2026-04-21 05:27 35.44133 141.82941 24955 ft 519 kts 91°
2026-04-21 05:27 35.44115 141.87401 25224 ft 521 kts 91°
2026-04-21 05:27 35.44099 141.91801 25509 ft 522 kts 91°
2026-04-21 05:27 35.44080 141.96268 25752 ft 524 kts 91°
2026-04-21 05:28 35.44054 142.00700 26008 ft 526 kts 92°
2026-04-21 05:28 35.44018 142.05225 26278 ft 527 kts 91°
2026-04-21 05:28 35.43977 142.09692 26544 ft 529 kts 91°
2026-04-21 05:28 35.43936 142.14178 26759 ft 531 kts 91°
2026-04-21 05:29 35.43893 142.18733 26963 ft 533 kts 91°
2026-04-21 05:29 35.43850 142.23236 27205 ft 535 kts 92°
2026-04-21 05:29 35.43804 142.27834 27430 ft 537 kts 91°
2026-04-21 05:29 35.43758 142.32417 27669 ft 538 kts 92°
2026-04-21 05:30 35.43710 142.36946 27879 ft 540 kts 92°
2026-04-21 05:30 35.43659 142.41560 28090 ft 541 kts 92°
2026-04-21 05:30 35.43607 142.46178 28284 ft 543 kts 92°
2026-04-21 05:30 35.43551 142.50816 28513 ft 545 kts 92°
2026-04-21 05:31 35.43494 142.55428 28717 ft 546 kts 92°
2026-04-21 05:31 35.43432 142.60107 28884 ft 548 kts 92°
2026-04-21 05:31 35.43364 142.64771 29056 ft 551 kts 91°
2026-04-21 05:31 35.43303 142.69478 29232 ft 552 kts 92°
2026-04-21 05:32 35.43236 142.74161 29454 ft 553 kts 92°
2026-04-21 05:32 35.43170 142.78865 29642 ft 554 kts 92°
2026-04-21 05:32 35.43101 142.83581 29814 ft 555 kts 93°
2026-04-21 05:32 35.43033 142.88327 29999 ft 556 kts 93°
2026-04-21 05:33 35.42957 142.93022 30206 ft 557 kts 92°
2026-04-21 05:33 35.42880 142.97781 30483 ft 556 kts 93°
2026-04-21 05:33 35.42809 143.02493 30755 ft 554 kts 93°
2026-04-21 05:33 35.42732 143.07152 31002 ft 554 kts 92°
2026-04-21 05:34 35.42652 143.11882 31218 ft 554 kts 93°
2026-04-21 05:34 35.42570 143.16588 31411 ft 554 kts 92°
2026-04-21 05:34 35.42494 143.21303 31573 ft 556 kts 91°
2026-04-21 05:34 35.42771 143.26010 31712 ft 557 kts 81°
2026-04-21 05:35 35.43626 143.30626 31865 ft 557 kts 71°
2026-04-21 05:35 35.45056 143.35046 32011 ft 554 kts 60°
2026-04-21 05:35 35.46961 143.39049 32185 ft 548 kts 50°
2026-04-21 05:35 35.49329 143.42677 32356 ft 541 kts 40°
2026-04-21 05:36 35.51936 143.45987 32515 ft 540 kts 39°
2026-04-21 05:36 35.54582 143.49222 32633 ft 541 kts 38°
2026-04-21 05:36 35.57272 143.52525 32786 ft 542 kts 39°
2026-04-21 05:36 35.59904 143.55801 32881 ft 544 kts 39°
2026-04-21 05:37 35.65194 143.62491 32892 ft 546 kts 40°
2026-04-21 05:37 35.70446 143.69211 32894 ft 546 kts 40°
2026-04-21 05:38 35.75715 143.75967 32898 ft 546 kts 40°
2026-04-21 05:38 35.80939 143.82689 32899 ft 544 kts 41°
2026-04-21 05:39 35.86162 143.89403 32896 ft 546 kts 41°
2026-04-21 05:39 35.91407 143.96173 32889 ft 546 kts 40°
2026-04-21 05:40 35.96650 144.02956 32890 ft 545 kts 40°
2026-04-21 05:40 36.01866 144.09711 32886 ft 546 kts 40°
2026-04-21 05:41 36.07084 144.16501 32882 ft 544 kts 41°
2026-04-21 05:41 36.12303 144.23305 32877 ft 546 kts 41°
2026-04-21 05:42 36.17520 144.30125 32877 ft 547 kts 41°
2026-04-21 05:42 36.22739 144.36958 32871 ft 548 kts 40°
2026-04-21 05:43 36.27953 144.43799 32870 ft 548 kts 40°
2026-04-21 05:43 36.33161 144.50644 32868 ft 548 kts 40°
2026-04-21 05:44 36.38399 144.57546 32871 ft 549 kts 40°
2026-04-21 05:44 36.43605 144.64424 32872 ft 548 kts 40°
2026-04-21 05:45 36.48823 144.71317 32865 ft 550 kts 41°
2026-04-21 05:45 36.54047 144.78239 32866 ft 551 kts 40°
2026-04-21 05:46 36.59282 144.85202 32864 ft 551 kts 41°
2026-04-21 05:46 36.64512 144.92162 32863 ft 553 kts 41°
2026-04-21 05:47 36.69751 144.99159 32861 ft 552 kts 41°
2026-04-21 05:47 36.74971 145.06133 32860 ft 553 kts 41°
2026-04-21 05:48 36.80203 145.13148 32857 ft 553 kts 41°
2026-04-21 05:48 36.85440 145.20184 32857 ft 554 kts 41°
2026-04-21 05:49 36.90689 145.27245 32863 ft 553 kts 41°
2026-04-21 05:49 36.95897 145.34267 32865 ft 555 kts 41°
2026-04-21 05:50 37.01134 145.41347 32866 ft 555 kts 41°
2026-04-21 05:50 37.06379 145.48450 32860 ft 556 kts 41°
2026-04-21 05:51 37.11586 145.55528 32859 ft 555 kts 41°
2026-04-21 05:51 37.16839 145.62691 32856 ft 557 kts 42°
2026-04-21 05:52 37.21630 145.70343 32848 ft 564 kts 51°
2026-04-21 05:52 37.25835 145.78622 32848 ft 566 kts 54°
2026-04-21 05:53 37.29965 145.87028 32848 ft 568 kts 54°
2026-04-21 05:53 37.34111 145.95433 32845 ft 567 kts 54°
2026-04-21 05:54 37.38262 146.03819 32836 ft 568 kts 54°
2026-04-21 05:54 37.42424 146.12233 32844 ft 567 kts 54°
2026-04-21 05:55 37.46586 146.20654 32842 ft 568 kts 54°
2026-04-21 05:55 37.50747 146.29112 32837 ft 568 kts 54°
2026-04-21 05:56 37.54871 146.37505 32843 ft 568 kts 53°
2026-04-21 05:56 37.59026 146.45991 32833 ft 568 kts 54°
2026-04-21 05:57 37.63132 146.54399 32832 ft 568 kts 53°
2026-04-21 05:57 37.67281 146.62913 32824 ft 568 kts 54°
2026-04-21 05:58 37.71404 146.71391 32813 ft 568 kts 54°
2026-04-21 05:58 37.75494 146.79826 32808 ft 568 kts 55°
2026-04-21 05:59 37.79600 146.88325 32796 ft 566 kts 55°
2026-04-21 06:00 37.85746 147.01073 32795 ft 567 kts 56°
2026-04-21 06:00 37.89852 147.09616 32786 ft 568 kts 55°
2026-04-21 06:01 37.93924 147.18135 32798 ft 567 kts 55°
2026-04-21 06:01 37.98004 147.26663 32798 ft 566 kts 54°
2026-04-21 06:02 38.02045 147.35141 32805 ft 567 kts 55°
2026-04-21 06:02 38.06113 147.43707 32807 ft 566 kts 55°
2026-04-21 06:03 38.10157 147.52237 32817 ft 566 kts 54°
2026-04-21 06:03 38.14219 147.60814 32839 ft 567 kts 54°
2026-04-21 06:04 38.18265 147.69386 32838 ft 568 kts 55°
2026-04-21 06:04 38.22290 147.77942 32848 ft 568 kts 55°
2026-04-21 06:05 38.26324 147.86556 32846 ft 567 kts 55°
2026-04-21 06:05 38.30351 147.95163 32860 ft 567 kts 55°
2026-04-21 06:06 38.34383 148.03798 32859 ft 567 kts 55°
2026-04-21 06:06 38.38379 148.12380 32855 ft 568 kts 56°
2026-04-21 06:07 38.42384 148.21017 32858 ft 566 kts 55°
2026-04-21 06:07 38.46390 148.29671 32841 ft 568 kts 56°
2026-04-21 06:08 38.50384 148.38335 32848 ft 567 kts 55°
2026-04-21 06:08 38.54355 148.46957 32850 ft 565 kts 55°
2026-04-21 06:09 38.58314 148.55579 32855 ft 565 kts 55°
2026-04-21 06:09 38.62273 148.64217 32858 ft 564 kts 56°
2026-04-21 06:10 38.66217 148.72864 32862 ft 564 kts 56°
2026-04-21 06:10 38.70160 148.81517 32852 ft 563 kts 56°
2026-04-21 06:11 38.74087 148.90164 32858 ft 562 kts 56°
2026-04-21 06:11 38.77979 148.98756 32870 ft 562 kts 56°
2026-04-21 06:12 38.81903 149.07437 32876 ft 562 kts 57°
2026-04-21 06:12 38.85796 149.16092 32876 ft 562 kts 57°
2026-04-21 06:13 38.89682 149.24751 32882 ft 560 kts 56°
2026-04-21 06:13 38.93535 149.33353 32890 ft 559 kts 56°
2026-04-21 06:14 38.97407 149.42011 32887 ft 559 kts 56°
2026-04-21 06:14 39.01263 149.50659 32887 ft 559 kts 56°
2026-04-21 06:15 39.05082 149.59250 32885 ft 558 kts 56°
2026-04-21 06:15 39.08940 149.67953 32886 ft 559 kts 56°
2026-04-21 06:16 39.12760 149.76605 32892 ft 557 kts 57°
2026-04-21 06:16 39.16372 149.85414 32897 ft 561 kts 62°
2026-04-21 06:17 39.19505 149.94641 32899 ft 562 kts 64°
2026-04-21 06:17 39.22551 150.03853 32909 ft 561 kts 64°
2026-04-21 06:18 39.25616 150.13091 32909 ft 561 kts 64°
2026-04-21 06:18 39.28680 150.22325 32912 ft 561 kts 63°
2026-04-21 06:19 39.31730 150.31508 32914 ft 561 kts 63°
2026-04-21 06:19 39.34803 150.40807 32920 ft 560 kts 63°
2026-04-21 06:20 39.37830 150.49985 32930 ft 561 kts 63°
2026-04-21 06:20 39.40876 150.59255 32933 ft 561 kts 63°
2026-04-21 06:21 39.43905 150.68510 32938 ft 560 kts 63°
2026-04-21 06:21 39.46942 150.77808 32949 ft 561 kts 64°
2026-04-21 06:22 39.49946 150.87058 32956 ft 560 kts 63°
2026-04-21 06:22 39.52948 150.96313 32960 ft 560 kts 63°
2026-04-21 06:23 39.55953 151.05621 32954 ft 559 kts 63°
2026-04-21 06:23 39.58939 151.14885 32948 ft 559 kts 63°
2026-04-21 06:24 39.61908 151.24142 32955 ft 559 kts 63°
2026-04-21 06:24 39.64896 151.33479 32959 ft 560 kts 63°
2026-04-21 06:25 39.67863 151.42787 32964 ft 560 kts 63°
2026-04-21 06:25 39.70826 151.52113 32969 ft 560 kts 63°
2026-04-21 06:26 39.73763 151.61389 32974 ft 560 kts 63°
2026-04-21 06:26 39.76716 151.70741 32965 ft 560 kts 64°
2026-04-21 06:27 39.79665 151.80115 32974 ft 561 kts 64°
2026-04-21 06:27 39.82585 151.89445 32985 ft 561 kts 64°
2026-04-21 06:28 39.85514 151.98813 32986 ft 561 kts 64°
2026-04-21 06:28 39.88444 152.08220 32991 ft 561 kts 64°
2026-04-21 06:29 39.91348 152.17587 32995 ft 561 kts 63°
2026-04-21 06:29 39.94254 152.26994 32998 ft 560 kts 63°
2026-04-21 06:30 39.97144 152.36372 33005 ft 559 kts 63°
2026-04-21 06:30 40.00041 152.45796 33006 ft 560 kts 63°
2026-04-21 06:31 40.02920 152.55200 33006 ft 559 kts 63°
2026-04-21 06:31 40.05782 152.64597 33008 ft 558 kts 63°
2026-04-21 06:32 40.08622 152.73930 33008 ft 559 kts 64°
2026-04-21 06:32 40.11473 152.83357 33018 ft 558 kts 64°
2026-04-21 06:33 40.14304 152.92749 33027 ft 557 kts 64°
2026-04-21 06:33 40.17136 153.02151 33026 ft 556 kts 64°
2026-04-21 06:34 40.19950 153.11551 33035 ft 555 kts 64°
2026-04-21 06:34 40.22732 153.20874 33040 ft 554 kts 63°
2026-04-21 06:35 40.25527 153.30252 33040 ft 554 kts 64°
2026-04-21 06:35 40.28291 153.39616 33043 ft 552 kts 63°
2026-04-21 06:36 40.31064 153.48991 33049 ft 552 kts 63°
2026-04-21 06:36 40.33805 153.58279 33051 ft 552 kts 64°
2026-04-21 06:37 40.36548 153.67656 33044 ft 551 kts 64°
2026-04-21 06:37 40.39278 153.77005 33057 ft 550 kts 64°
2026-04-21 06:38 40.42007 153.86366 33066 ft 551 kts 64°
2026-04-21 06:38 40.44732 153.95744 33065 ft 551 kts 64°
2026-04-21 06:39 40.47437 154.05098 33076 ft 550 kts 64°
2026-04-21 06:39 40.50129 154.14452 33081 ft 550 kts 64°
2026-04-21 06:40 40.52813 154.23813 33086 ft 548 kts 64°
2026-04-21 06:40 40.55474 154.33124 33096 ft 546 kts 64°
2026-04-21 06:41 40.58147 154.42496 33095 ft 547 kts 64°
2026-04-21 06:41 40.60795 154.51827 33104 ft 545 kts 64°
2026-04-21 06:42 40.63415 154.61084 33109 ft 544 kts 64°
2026-04-21 06:42 40.66060 154.70453 33111 ft 545 kts 66°
2026-04-21 06:43 40.68666 154.79746 33120 ft 545 kts 65°
2026-04-21 06:43 40.71279 154.89082 33120 ft 543 kts 65°
2026-04-21 06:44 40.73872 154.98379 33131 ft 542 kts 66°
2026-04-21 06:44 40.76465 155.07716 33129 ft 541 kts 65°
2026-04-21 06:45 40.79031 155.16981 33140 ft 540 kts 66°
2026-04-21 06:45 40.81583 155.26230 33143 ft 540 kts 66°
2026-04-21 06:46 40.84137 155.35525 33145 ft 539 kts 66°
2026-04-21 06:46 40.86678 155.44809 33147 ft 537 kts 66°
2026-04-21 06:47 40.89207 155.54080 33149 ft 537 kts 66°
2026-04-21 06:47 40.91717 155.63312 33146 ft 536 kts 66°
2026-04-21 06:48 40.94221 155.72562 33139 ft 536 kts 67°
2026-04-21 06:48 40.96726 155.81853 33142 ft 535 kts 67°
2026-04-21 06:49 40.99204 155.91069 33156 ft 536 kts 67°
2026-04-21 06:49 41.01682 156.00330 33155 ft 534 kts 67°
2026-04-21 06:50 41.04139 156.09549 33160 ft 533 kts 67°
2026-04-21 06:50 41.06589 156.18765 33153 ft 532 kts 68°
2026-04-21 06:51 41.09026 156.27968 33161 ft 531 kts 67°
2026-04-21 06:51 41.11467 156.37224 33167 ft 531 kts 68°
2026-04-21 06:52 41.13882 156.46411 33162 ft 531 kts 68°
2026-04-21 06:52 41.16288 156.55608 33167 ft 530 kts 68°
2026-04-21 06:53 41.18697 156.64853 33174 ft 529 kts 67°
2026-04-21 06:53 41.21098 156.74092 33172 ft 530 kts 68°
2026-04-21 06:54 41.23478 156.83285 33169 ft 529 kts 68°
2026-04-21 06:54 41.25839 156.92452 33175 ft 528 kts 68°
2026-04-21 06:55 41.28218 157.01697 33173 ft 529 kts 68°
2026-04-21 06:55 41.30571 157.10901 33178 ft 528 kts 68°
2026-04-21 06:56 41.32920 157.20117 33179 ft 528 kts 68°
2026-04-21 06:56 41.35259 157.29330 33182 ft 527 kts 68°
2026-04-21 06:57 41.37599 157.38585 33182 ft 528 kts 68°
2026-04-21 06:57 41.39922 157.47803 33183 ft 527 kts 68°
2026-04-21 06:58 41.42235 157.57016 33179 ft 528 kts 68°
2026-04-21 06:58 41.44545 157.66260 33178 ft 528 kts 69°
2026-04-21 06:59 41.46868 157.75589 33185 ft 528 kts 69°
2026-04-21 06:59 41.49157 157.84824 33182 ft 528 kts 68°
2026-04-21 07:00 41.51456 157.94132 33184 ft 528 kts 68°
2026-04-21 07:00 41.53740 158.03409 33192 ft 527 kts 69°
2026-04-21 07:01 41.56005 158.12650 33189 ft 528 kts 68°
2026-04-21 07:01 41.59409 158.26608 33186 ft 528 kts 69°
2026-04-21 07:02 41.61656 158.35867 33191 ft 527 kts 69°
2026-04-21 07:02 41.63907 158.45183 33190 ft 527 kts 69°
2026-04-21 07:03 41.66149 158.54501 33192 ft 527 kts 69°
2026-04-21 07:03 41.68377 158.63796 33197 ft 527 kts 69°
2026-04-21 07:04 41.70595 158.73079 33200 ft 526 kts 69°
2026-04-21 07:04 41.72805 158.82371 33206 ft 525 kts 70°
2026-04-21 07:05 41.74999 158.91632 33189 ft 525 kts 70°
2026-04-21 07:05 41.77200 159.00961 33197 ft 526 kts 70°
2026-04-21 07:06 41.79380 159.10255 33194 ft 525 kts 70°
2026-04-21 07:06 41.81567 159.19603 33197 ft 525 kts 70°
2026-04-21 07:07 41.83720 159.28851 33204 ft 525 kts 70°
2026-04-21 07:07 41.85886 159.38187 33198 ft 525 kts 70°
2026-04-21 07:08 41.88049 159.47559 33207 ft 526 kts 70°
2026-04-21 07:08 41.90193 159.56879 33209 ft 526 kts 70°
2026-04-21 07:09 41.92337 159.66228 33209 ft 526 kts 70°
2026-04-21 07:09 41.94477 159.75612 33208 ft 525 kts 70°
2026-04-21 07:10 41.96604 159.84973 33212 ft 527 kts 70°
2026-04-21 07:10 41.98719 159.94324 33216 ft 527 kts 70°
2026-04-21 07:11 42.01262 160.03537 33214 ft 523 kts 62°
2026-04-21 07:11 42.04373 160.12355 33211 ft 522 kts 60°
2026-04-21 07:12 42.07525 160.21062 33210 ft 520 kts 60°
2026-04-21 07:12 42.10671 160.29820 33210 ft 520 kts 60°
2026-04-21 07:13 42.13791 160.38562 33206 ft 521 kts 60°
2026-04-21 07:13 42.16910 160.47351 33201 ft 521 kts 60°
2026-04-21 07:14 42.20025 160.56168 33202 ft 521 kts 60°
2026-04-21 07:14 42.23103 160.64905 33199 ft 521 kts 60°
2026-04-21 07:15 42.26208 160.73730 33193 ft 522 kts 60°
2026-04-21 07:15 42.29299 160.82559 33200 ft 522 kts 60°
2026-04-21 07:16 42.32384 160.91393 33197 ft 521 kts 60°
2026-04-21 07:16 42.35450 161.00201 33199 ft 520 kts 60°
2026-04-21 07:17 42.38520 161.09039 33198 ft 521 kts 60°
2026-04-21 07:17 42.41585 161.17900 33194 ft 521 kts 60°
2026-04-21 07:18 42.44644 161.26775 33196 ft 521 kts 60°
2026-04-21 07:18 42.47687 161.35625 33195 ft 521 kts 60°
2026-04-21 07:19 42.50728 161.44502 33197 ft 521 kts 60°
2026-04-21 07:19 42.53774 161.53421 33197 ft 522 kts 60°
2026-04-21 07:20 42.56802 161.62323 33194 ft 521 kts 60°
2026-04-21 07:20 42.59811 161.71188 33193 ft 521 kts 61°
2026-04-21 07:21 42.62846 161.80158 33196 ft 522 kts 60°
2026-04-21 07:21 42.65835 161.89029 33197 ft 521 kts 60°
2026-04-21 07:22 42.68842 161.97969 33197 ft 523 kts 60°
2026-04-21 07:22 42.71846 162.06946 33199 ft 523 kts 60°
2026-04-21 07:23 42.74842 162.15922 33192 ft 522 kts 60°
2026-04-21 07:23 42.77837 162.24916 33187 ft 524 kts 60°
2026-04-21 07:24 42.80828 162.33943 33189 ft 524 kts 60°
2026-04-21 07:24 42.83805 162.42947 33176 ft 524 kts 60°
2026-04-21 07:25 42.86789 162.52010 33174 ft 525 kts 60°
2026-04-21 07:25 42.89758 162.61055 33170 ft 525 kts 60°
2026-04-21 07:26 42.92736 162.70151 33160 ft 525 kts 60°
2026-04-21 07:26 42.95690 162.79205 33163 ft 526 kts 60°
2026-04-21 07:27 42.98644 162.88295 33156 ft 526 kts 60°
2026-04-21 07:27 43.01594 162.97407 33159 ft 526 kts 60°
2026-04-21 07:28 43.04551 163.06570 33154 ft 527 kts 60°
2026-04-21 07:28 43.07490 163.15710 33155 ft 527 kts 60°
2026-04-21 07:29 43.10424 163.24860 33161 ft 529 kts 60°
2026-04-21 07:29 43.13362 163.34056 33159 ft 529 kts 60°
2026-04-21 07:30 43.16288 163.43243 33159 ft 530 kts 60°
2026-04-21 07:30 43.19217 163.52486 33155 ft 530 kts 60°
2026-04-21 07:31 43.22120 163.61670 33150 ft 529 kts 60°
2026-04-21 07:31 43.25044 163.70947 33142 ft 530 kts 60°
2026-04-21 07:32 43.27950 163.80208 33142 ft 530 kts 60°
2026-04-21 07:32 43.30864 163.89516 33139 ft 532 kts 60°
2026-04-21 07:33 43.33752 163.98781 33137 ft 533 kts 60°
2026-04-21 07:33 43.36652 164.08127 33133 ft 533 kts 60°
2026-04-21 07:34 43.39550 164.17497 33130 ft 533 kts 60°
2026-04-21 07:34 43.42448 164.26884 33129 ft 535 kts 60°
2026-04-21 07:35 43.45314 164.36223 33127 ft 534 kts 59°
2026-04-21 07:35 43.48193 164.45628 33125 ft 535 kts 59°
2026-04-21 07:36 43.51062 164.55026 33123 ft 535 kts 59°
2026-04-21 07:36 43.53928 164.64455 33120 ft 537 kts 59°
2026-04-21 07:37 43.56804 164.73956 33115 ft 537 kts 59°
2026-04-21 07:37 43.59653 164.83403 33116 ft 537 kts 59°
2026-04-21 07:38 43.62508 164.92899 33108 ft 538 kts 59°
2026-04-21 07:38 43.65363 165.02423 33108 ft 540 kts 59°
2026-04-21 07:39 43.68211 165.11980 33098 ft 540 kts 59°
2026-04-21 07:39 43.71048 165.21533 33096 ft 539 kts 59°
2026-04-21 07:40 43.73885 165.31108 33090 ft 540 kts 58°
2026-04-21 07:40 43.76707 165.40672 33082 ft 540 kts 59°
2026-04-21 07:41 43.79543 165.50302 33076 ft 541 kts 59°
2026-04-21 07:41 43.82357 165.59921 33074 ft 541 kts 58°
2026-04-21 07:42 43.85175 165.69586 33061 ft 542 kts 59°
2026-04-21 07:42 43.87975 165.79215 33062 ft 543 kts 59°
2026-04-21 07:43 43.90781 165.88915 33059 ft 543 kts 59°
2026-04-21 07:43 43.93578 165.98616 33053 ft 544 kts 58°
2026-04-21 07:44 43.96365 166.08324 33046 ft 544 kts 58°
2026-04-21 07:44 43.99137 166.18018 33042 ft 543 kts 58°
2026-04-21 07:45 44.01911 166.27727 33038 ft 544 kts 58°
2026-04-21 07:45 44.04678 166.37483 33036 ft 545 kts 58°
2026-04-21 07:46 44.07449 166.47301 33032 ft 544 kts 58°
2026-04-21 07:46 44.10196 166.57057 33032 ft 542 kts 58°
2026-04-21 07:47 44.12932 166.66792 33027 ft 543 kts 59°
2026-04-21 07:47 44.15657 166.76553 33027 ft 542 kts 58°
2026-04-21 07:48 44.18366 166.86287 33027 ft 542 kts 58°
2026-04-21 07:48 44.21075 166.96046 33025 ft 543 kts 59°
2026-04-21 07:49 44.23795 167.05896 33015 ft 544 kts 58°
2026-04-21 07:49 44.26490 167.15710 32999 ft 542 kts 58°
2026-04-21 07:50 44.29163 167.25464 33001 ft 543 kts 59°
2026-04-21 07:50 44.31845 167.35298 33000 ft 543 kts 58°
2026-04-21 07:51 44.34505 167.45087 32992 ft 543 kts 59°
2026-04-21 07:51 44.37155 167.54916 32981 ft 540 kts 58°
2026-04-21 07:52 44.39788 167.64684 32980 ft 540 kts 59°
2026-04-21 07:52 44.42422 167.74493 32970 ft 540 kts 59°
2026-04-21 07:53 44.45044 167.84322 32966 ft 538 kts 59°
2026-04-21 07:53 44.47650 167.94092 32963 ft 538 kts 59°
2026-04-21 07:54 44.50232 168.03836 32972 ft 537 kts 59°
2026-04-21 07:54 44.52811 168.13609 32967 ft 536 kts 60°
2026-04-21 07:55 44.55384 168.23389 32966 ft 536 kts 59°
2026-04-21 07:55 44.57938 168.33150 32960 ft 535 kts 60°
2026-04-21 07:56 44.60488 168.42935 32961 ft 534 kts 59°
2026-04-21 07:56 44.63018 168.52658 32955 ft 536 kts 60°
2026-04-21 07:57 44.65549 168.62448 32946 ft 535 kts 60°
2026-04-21 07:57 44.68061 168.72221 32949 ft 533 kts 61°
2026-04-21 07:58 44.70569 168.81995 32941 ft 535 kts 61°
2026-04-21 07:58 44.73074 168.91806 32928 ft 534 kts 61°
2026-04-21 07:59 44.75564 169.01619 32921 ft 532 kts 62°
2026-04-21 07:59 44.78040 169.11388 32900 ft 532 kts 62°
2026-04-21 08:00 44.80506 169.21158 32906 ft 533 kts 62°
2026-04-21 08:00 44.82954 169.30920 32873 ft 531 kts 62°
2026-04-21 08:01 44.85410 169.40739 32880 ft 532 kts 62°
2026-04-21 08:02 44.89066 169.55432 32864 ft 533 kts 62°
2026-04-21 08:02 44.91490 169.65245 32875 ft 532 kts 63°
2026-04-21 08:03 44.93913 169.75082 32875 ft 532 kts 63°
2026-04-21 08:03 44.96324 169.84904 32872 ft 533 kts 63°
2026-04-21 08:04 44.98715 169.94714 32865 ft 531 kts 62°
2026-04-21 08:04 45.01529 170.04306 32870 ft 525 kts 55°
2026-04-21 08:05 45.04794 170.13420 32866 ft 523 kts 54°
2026-04-21 08:05 45.08104 170.22528 32861 ft 521 kts 54°
2026-04-21 08:06 45.11396 170.31662 32859 ft 522 kts 54°
2026-04-21 08:06 45.14669 170.40801 32851 ft 521 kts 54°
2026-04-21 08:07 45.17926 170.49934 32837 ft 523 kts 55°
2026-04-21 08:07 45.21178 170.59097 32837 ft 521 kts 55°
2026-04-21 08:08 45.24422 170.68257 32829 ft 520 kts 56°
2026-04-21 08:08 45.27660 170.77447 32819 ft 521 kts 56°
2026-04-21 08:09 45.30872 170.86585 32815 ft 522 kts 56°
2026-04-21 08:09 45.34109 170.95825 32813 ft 521 kts 56°
2026-04-21 08:10 45.37316 171.05016 32803 ft 520 kts 56°
2026-04-21 08:10 45.40503 171.14177 32802 ft 522 kts 56°
2026-04-21 08:11 45.43720 171.23462 32801 ft 521 kts 57°
2026-04-21 08:11 45.46909 171.32693 32797 ft 521 kts 56°
2026-04-21 08:12 45.50077 171.41896 32789 ft 519 kts 57°
2026-04-21 08:12 45.53230 171.51073 32785 ft 520 kts 57°
2026-04-21 08:13 45.56391 171.60324 32779 ft 519 kts 57°
2026-04-21 08:13 45.59536 171.69562 32772 ft 518 kts 58°
2026-04-21 08:14 45.62675 171.78812 32762 ft 517 kts 58°
2026-04-21 08:14 45.65795 171.88029 32756 ft 517 kts 58°
2026-04-21 08:15 45.68911 171.97269 32747 ft 518 kts 58°
2026-04-21 08:15 45.72028 172.06546 32740 ft 517 kts 58°
2026-04-21 08:16 45.75121 172.15790 32737 ft 518 kts 58°
2026-04-21 08:16 45.78212 172.25052 32738 ft 517 kts 58°
2026-04-21 08:17 45.81282 172.34294 32736 ft 516 kts 58°
2026-04-21 08:17 45.84356 172.43574 32723 ft 516 kts 58°
2026-04-21 08:18 45.87411 172.52834 32715 ft 516 kts 58°
2026-04-21 08:18 45.90460 172.62096 32710 ft 515 kts 58°
2026-04-21 08:19 45.93496 172.71359 32701 ft 515 kts 59°
2026-04-21 08:19 45.96530 172.80650 32695 ft 513 kts 59°
2026-04-21 08:20 45.99544 172.89920 32689 ft 514 kts 59°
2026-04-21 08:20 46.02551 172.99193 32680 ft 513 kts 59°
2026-04-21 08:21 46.05549 173.08464 32670 ft 513 kts 60°
2026-04-21 08:21 46.08553 173.17798 32666 ft 514 kts 60°
2026-04-21 08:22 46.11541 173.27118 32665 ft 514 kts 60°
2026-04-21 08:22 46.14500 173.36380 32649 ft 513 kts 60°
2026-04-21 08:23 46.17469 173.45699 32638 ft 512 kts 60°
2026-04-21 08:23 46.20429 173.55029 32639 ft 513 kts 60°
2026-04-21 08:24 46.23379 173.64363 32645 ft 513 kts 60°
2026-04-21 08:24 46.26331 173.73737 32636 ft 513 kts 61°
2026-04-21 08:25 46.29266 173.83084 32629 ft 512 kts 61°
2026-04-21 08:25 46.32190 173.92435 32621 ft 513 kts 61°
2026-04-21 08:26 46.35108 174.01808 32607 ft 512 kts 61°
2026-04-21 08:26 46.38021 174.11198 32592 ft 512 kts 62°
2026-04-21 08:27 46.40922 174.20583 32582 ft 512 kts 62°
2026-04-21 08:27 46.43816 174.29977 32572 ft 512 kts 62°
2026-04-21 08:28 46.46697 174.39363 32587 ft 512 kts 62°
2026-04-21 08:28 46.49572 174.48761 32587 ft 511 kts 62°
2026-04-21 08:29 46.52435 174.58159 32576 ft 511 kts 62°
2026-04-21 08:29 46.55289 174.67566 32562 ft 511 kts 63°
2026-04-21 08:30 46.58136 174.76984 32560 ft 510 kts 63°
2026-04-21 08:30 46.60971 174.86392 32546 ft 510 kts 63°
2026-04-21 08:31 46.63791 174.95792 32533 ft 509 kts 63°
2026-04-21 08:31 46.66610 175.05222 32530 ft 510 kts 63°
2026-04-21 08:32 46.69417 175.14647 32518 ft 510 kts 63°
2026-04-21 08:32 46.72222 175.24097 32527 ft 510 kts 63°
2026-04-21 08:33 46.75011 175.33531 32520 ft 510 kts 63°
2026-04-21 08:33 46.77799 175.42995 32508 ft 509 kts 63°
2026-04-21 08:34 46.80591 175.52519 32516 ft 509 kts 63°
2026-04-21 08:34 46.83352 175.61971 32513 ft 509 kts 63°
2026-04-21 08:35 46.86102 175.71414 32497 ft 509 kts 64°
2026-04-21 08:35 46.88860 175.80920 32493 ft 508 kts 65°
2026-04-21 08:36 46.91594 175.90392 32488 ft 508 kts 64°
2026-04-21 08:36 46.94327 175.99892 32471 ft 507 kts 65°
2026-04-21 08:37 46.97050 176.09393 32478 ft 508 kts 65°
2026-04-21 08:37 46.99761 176.18890 32467 ft 506 kts 65°
2026-04-21 08:38 47.02454 176.28358 32468 ft 506 kts 65°
2026-04-21 08:38 47.05142 176.37851 32457 ft 506 kts 65°
2026-04-21 08:39 47.07811 176.47308 32454 ft 506 kts 65°
2026-04-21 08:39 47.10498 176.56873 32451 ft 505 kts 65°
2026-04-21 08:40 47.13155 176.66357 32456 ft 505 kts 66°
2026-04-21 08:40 47.15813 176.75882 32436 ft 505 kts 66°
2026-04-21 08:41 47.18449 176.85388 32452 ft 505 kts 66°
2026-04-21 08:41 47.21073 176.94878 32447 ft 504 kts 66°
2026-04-21 08:42 47.23706 177.04443 32432 ft 504 kts 66°
2026-04-21 08:42 47.26316 177.13953 32428 ft 504 kts 66°
2026-04-21 08:43 47.28918 177.23476 32428 ft 504 kts 66°
2026-04-21 08:43 47.31524 177.33048 32425 ft 503 kts 66°
2026-04-21 08:44 47.34110 177.42590 32422 ft 504 kts 67°
2026-04-21 08:44 47.36689 177.52141 32419 ft 504 kts 67°
2026-04-21 08:45 47.39260 177.61699 32409 ft 504 kts 67°
2026-04-21 08:45 47.41835 177.71318 32406 ft 504 kts 68°
2026-04-21 08:46 47.44395 177.80917 32412 ft 504 kts 68°
2026-04-21 08:46 47.46937 177.90485 32400 ft 503 kts 68°
2026-04-21 08:47 47.49486 178.00120 32382 ft 503 kts 68°
2026-04-21 08:47 47.52008 178.09692 32389 ft 503 kts 68°
2026-04-21 08:48 47.54535 178.19328 32391 ft 503 kts 68°
2026-04-21 08:48 47.57042 178.28925 32389 ft 502 kts 68°
2026-04-21 08:49 47.59545 178.38545 32377 ft 502 kts 69°
2026-04-21 08:49 47.62035 178.48154 32380 ft 502 kts 69°
2026-04-21 08:50 47.64534 178.57832 32380 ft 503 kts 69°
2026-04-21 08:50 47.67014 178.67484 32367 ft 503 kts 70°
2026-04-21 08:51 47.69486 178.77142 32359 ft 502 kts 70°
2026-04-21 08:51 47.71949 178.86813 32357 ft 502 kts 70°
2026-04-21 08:52 47.74397 178.96469 32355 ft 502 kts 70°
2026-04-21 08:52 47.76839 179.06137 32358 ft 502 kts 70°
2026-04-21 08:53 47.79277 179.15830 32349 ft 501 kts 70°
2026-04-21 08:53 47.81697 179.25491 32336 ft 501 kts 70°
2026-04-21 08:54 47.84123 179.35214 32342 ft 501 kts 70°
2026-04-21 08:54 47.86534 179.44925 32338 ft 502 kts 71°
2026-04-21 08:55 47.88919 179.54581 32337 ft 501 kts 71°
2026-04-21 08:55 47.91315 179.64308 32337 ft 501 kts 71°
2026-04-21 08:56 47.93695 179.74033 32334 ft 500 kts 71°
2026-04-21 08:56 47.96071 179.83772 32323 ft 501 kts 71°
2026-04-21 08:57 47.98427 179.93469 32315 ft 500 kts 72°
2026-04-21 08:57 48.00799 -179.96786 32310 ft 500 kts 71°
2026-04-21 08:58 48.03249 -179.87079 32312 ft 500 kts 71°
2026-04-21 08:58 48.05681 -179.77434 32323 ft 500 kts 71°
2026-04-21 08:59 48.08113 -179.67717 32320 ft 500 kts 71°
2026-04-21 08:59 48.10525 -179.58012 32306 ft 499 kts 71°
2026-04-21 09:00 48.12917 -179.48334 32321 ft 500 kts 72°
2026-04-21 09:00 48.15314 -179.38609 32329 ft 500 kts 72°
2026-04-21 09:01 48.17708 -179.28851 32316 ft 500 kts 72°
2026-04-21 09:01 48.20086 -179.19116 32323 ft 499 kts 73°
2026-04-21 09:02 48.22458 -179.09367 32311 ft 499 kts 73°
2026-04-21 09:02 48.24816 -178.99631 32306 ft 498 kts 73°
2026-04-21 09:03 48.28326 -178.85053 32317 ft 499 kts 73°
2026-04-21 09:03 48.30671 -178.75259 32320 ft 499 kts 73°
2026-04-21 09:04 48.33003 -178.65482 32321 ft 499 kts 73°
2026-04-21 09:04 48.35325 -178.55699 32320 ft 499 kts 73°
2026-04-21 09:05 48.37651 -178.45854 32325 ft 499 kts 74°
2026-04-21 09:05 48.39950 -178.36081 32332 ft 498 kts 75°
2026-04-21 09:06 48.42240 -178.26300 32333 ft 498 kts 75°
2026-04-21 09:06 48.44536 -178.16452 32331 ft 498 kts 75°
2026-04-21 09:07 48.46814 -178.06639 32340 ft 497 kts 75°
2026-04-21 09:07 48.49069 -177.96876 32338 ft 496 kts 75°
2026-04-21 09:08 48.51320 -177.87087 32328 ft 495 kts 75°
2026-04-21 09:08 48.53545 -177.77364 32316 ft 494 kts 75°
2026-04-21 09:09 48.55774 -177.67587 32321 ft 494 kts 75°
2026-04-21 09:09 48.57998 -177.57776 32309 ft 494 kts 75°
2026-04-21 09:10 48.60200 -177.48027 32340 ft 494 kts 75°
2026-04-21 09:10 48.62402 -177.38232 32330 ft 493 kts 76°
2026-04-21 09:11 48.64593 -177.28438 32332 ft 493 kts 76°
2026-04-21 09:11 48.66775 -177.18639 32345 ft 492 kts 76°
2026-04-21 09:12 48.68945 -177.08846 32345 ft 492 kts 77°
2026-04-21 09:12 48.71094 -176.99106 32338 ft 491 kts 77°
2026-04-21 09:13 48.73246 -176.89291 32341 ft 491 kts 77°
2026-04-21 09:13 48.75379 -176.79529 32332 ft 491 kts 77°
2026-04-21 09:14 48.77504 -176.69756 32332 ft 491 kts 77°
2026-04-21 09:14 48.79627 -176.59952 32333 ft 491 kts 77°
2026-04-21 09:15 48.81735 -176.50160 32331 ft 490 kts 77°
2026-04-21 09:15 48.83825 -176.40413 32348 ft 489 kts 77°
2026-04-21 09:16 48.85912 -176.30632 32340 ft 489 kts 78°
2026-04-21 09:16 48.87995 -176.20816 32342 ft 489 kts 78°
2026-04-21 09:17 48.90054 -176.11073 32340 ft 488 kts 78°
2026-04-21 09:17 48.92120 -176.01250 32330 ft 487 kts 78°
2026-04-21 09:18 48.94167 -175.91476 32336 ft 486 kts 79°
2026-04-21 09:18 48.96193 -175.81749 32324 ft 486 kts 79°
2026-04-21 09:19 48.98221 -175.71973 32323 ft 486 kts 79°
2026-04-21 09:19 49.00240 -175.62186 32323 ft 486 kts 79°
2026-04-21 09:20 49.02250 -175.52399 32327 ft 486 kts 79°
2026-04-21 09:20 49.04240 -175.42627 32340 ft 485 kts 79°
2026-04-21 09:21 49.06236 -175.32819 32335 ft 485 kts 79°
2026-04-21 09:21 49.08223 -175.23044 32346 ft 484 kts 80°
2026-04-21 09:22 49.10184 -175.13271 32325 ft 484 kts 80°
2026-04-21 09:22 49.12143 -175.03467 32333 ft 484 kts 81°
2026-04-21 09:23 49.14093 -174.93671 32312 ft 484 kts 81°
2026-04-21 09:23 49.16029 -174.83900 32346 ft 483 kts 81°
2026-04-21 09:24 49.17963 -174.74103 32343 ft 481 kts 81°
2026-04-21 09:24 49.19880 -174.64320 32346 ft 482 kts 81°
2026-04-21 09:25 49.21782 -174.54579 32357 ft 481 kts 81°
2026-04-21 09:25 49.23675 -174.44836 32344 ft 479 kts 81°
2026-04-21 09:26 49.25560 -174.35083 32386 ft 477 kts 81°
2026-04-21 09:26 49.27423 -174.25383 32350 ft 476 kts 82°
2026-04-21 09:27 49.29279 -174.15677 32367 ft 476 kts 82°
2026-04-21 09:27 49.31123 -174.05980 32359 ft 475 kts 82°
2026-04-21 09:28 49.32957 -173.96298 32362 ft 475 kts 82°
2026-04-21 09:28 49.34782 -173.86620 32361 ft 474 kts 82°
2026-04-21 09:29 49.36600 -173.76909 32356 ft 473 kts 82°
2026-04-21 09:29 49.38403 -173.67241 32351 ft 473 kts 82°
2026-04-21 09:30 49.40190 -173.57587 32343 ft 473 kts 82°
2026-04-21 09:30 49.41975 -173.47902 32354 ft 474 kts 82°
2026-04-21 09:31 49.43754 -173.38205 32378 ft 473 kts 82°
2026-04-21 09:31 49.45526 -173.28500 32376 ft 472 kts 83°
2026-04-21 09:32 49.47288 -173.18785 32385 ft 473 kts 83°
2026-04-21 09:32 49.49039 -173.09082 32374 ft 472 kts 83°
2026-04-21 09:33 49.50785 -172.99367 32380 ft 473 kts 83°
2026-04-21 09:33 49.52518 -172.89659 32361 ft 473 kts 83°
2026-04-21 09:34 49.54248 -172.79925 32364 ft 472 kts 83°
2026-04-21 09:34 49.55964 -172.70213 32360 ft 473 kts 83°
2026-04-21 09:35 49.57674 -172.60483 32370 ft 473 kts 83°
2026-04-21 09:35 49.59385 -172.50688 32370 ft 472 kts 83°
2026-04-21 09:36 49.61074 -172.40967 32379 ft 472 kts 83°
2026-04-21 09:36 49.62760 -172.31213 32391 ft 472 kts 84°
2026-04-21 09:37 49.64443 -172.21426 32394 ft 473 kts 83°
2026-04-21 09:37 49.66109 -172.11684 32402 ft 472 kts 84°
2026-04-21 09:38 49.67781 -172.01845 32406 ft 473 kts 84°
2026-04-21 09:38 49.69440 -171.92023 32394 ft 475 kts 83°
2026-04-21 09:39 49.71082 -171.82233 32408 ft 476 kts 83°
2026-04-21 09:39 49.72731 -171.72376 32421 ft 474 kts 83°
2026-04-21 09:40 49.74370 -171.62515 32430 ft 475 kts 83°
2026-04-21 09:40 49.76006 -171.52611 32429 ft 475 kts 83°
2026-04-21 09:41 49.77616 -171.42799 32437 ft 476 kts 83°
2026-04-21 09:41 49.79236 -171.32873 32442 ft 478 kts 84°
2026-04-21 09:42 49.80848 -171.22948 32447 ft 476 kts 84°
2026-04-21 09:42 49.82447 -171.13031 32461 ft 476 kts 84°
2026-04-21 09:43 49.84046 -171.03052 32456 ft 477 kts 83°
2026-04-21 09:43 49.85630 -170.93109 32465 ft 477 kts 83°
2026-04-21 09:44 49.87205 -170.83168 32481 ft 477 kts 83°
2026-04-21 09:44 49.88771 -170.73221 32496 ft 478 kts 83°
2026-04-21 09:45 49.90339 -170.63207 32508 ft 477 kts 83°
2026-04-21 09:45 49.91888 -170.53247 32515 ft 478 kts 83°
2026-04-21 09:46 49.93426 -170.43300 32522 ft 478 kts 83°
2026-04-21 09:46 49.94964 -170.33278 32520 ft 478 kts 84°
2026-04-21 09:47 49.96495 -170.23256 32529 ft 477 kts 84°
2026-04-21 09:47 49.98015 -170.13220 32529 ft 478 kts 84°
2026-04-21 09:48 49.99572 -170.03180 32544 ft 482 kts 81°
2026-04-21 09:48 50.01677 -169.93285 32563 ft 487 kts 76°
2026-04-21 09:49 50.04137 -169.83499 32579 ft 487 kts 75°
2026-04-21 09:49 50.06614 -169.73694 32586 ft 488 kts 75°
2026-04-21 09:50 50.09073 -169.63864 32585 ft 488 kts 74°
2026-04-21 09:50 50.11531 -169.53975 32592 ft 489 kts 75°
2026-04-21 09:51 50.13963 -169.44145 32599 ft 490 kts 74°
2026-04-21 09:51 50.16402 -169.34235 32602 ft 490 kts 75°
2026-04-21 09:52 50.18824 -169.24355 32617 ft 489 kts 75°
2026-04-21 09:52 50.21236 -169.14475 32622 ft 490 kts 75°
2026-04-21 09:53 50.23641 -169.04567 32635 ft 489 kts 75°
2026-04-21 09:53 50.26029 -168.94685 32640 ft 489 kts 75°
2026-04-21 09:54 50.28416 -168.84764 32648 ft 489 kts 75°
2026-04-21 09:54 50.30801 -168.74806 32653 ft 489 kts 75°
2026-04-21 09:55 50.33167 -168.64883 32666 ft 489 kts 75°
2026-04-21 09:55 50.35525 -168.54952 32672 ft 489 kts 75°
2026-04-21 09:56 50.37883 -168.44971 32687 ft 489 kts 74°
2026-04-21 09:56 50.40220 -168.35033 32693 ft 489 kts 74°
2026-04-21 09:57 50.42558 -168.25050 32698 ft 489 kts 75°
2026-04-21 09:57 50.44890 -168.15047 32704 ft 489 kts 75°
2026-04-21 09:58 50.47207 -168.05052 32716 ft 489 kts 75°
2026-04-21 09:58 50.49526 -167.95012 32715 ft 489 kts 75°
2026-04-21 09:59 50.51827 -167.84992 32716 ft 489 kts 74°
2026-04-21 09:59 50.54120 -167.74966 32737 ft 490 kts 74°
2026-04-21 10:00 50.56409 -167.64906 32751 ft 490 kts 74°
2026-04-21 10:00 50.58681 -167.54884 32755 ft 490 kts 74°
2026-04-21 10:01 50.60949 -167.44817 32764 ft 490 kts 74°
2026-04-21 10:01 50.63219 -167.34703 32772 ft 490 kts 75°
2026-04-21 10:02 50.66588 -167.19604 32772 ft 489 kts 75°
2026-04-21 10:03 50.68838 -167.09459 32781 ft 490 kts 75°
2026-04-21 10:03 50.71064 -166.99371 32785 ft 490 kts 75°
2026-04-21 10:04 50.73280 -166.89275 32790 ft 490 kts 74°
2026-04-21 10:04 50.75501 -166.79109 32790 ft 490 kts 74°
2026-04-21 10:05 50.77705 -166.68970 32814 ft 490 kts 74°
2026-04-21 10:05 50.79898 -166.58839 32816 ft 489 kts 74°
2026-04-21 10:06 50.82088 -166.48659 32830 ft 489 kts 74°
2026-04-21 10:06 50.84267 -166.38489 32843 ft 490 kts 74°
2026-04-21 10:07 50.86425 -166.28360 32857 ft 490 kts 75°
2026-04-21 10:07 50.88590 -166.18144 32863 ft 489 kts 75°
2026-04-21 10:08 50.90747 -166.07933 32873 ft 489 kts 75°
2026-04-21 10:08 50.92876 -165.97794 32878 ft 489 kts 75°
2026-04-21 10:09 50.95005 -165.87595 32882 ft 488 kts 74°
2026-04-21 10:09 50.97125 -165.77393 32885 ft 488 kts 74°
2026-04-21 10:10 50.99231 -165.67209 32892 ft 488 kts 74°
2026-04-21 10:10 51.01323 -165.57037 32895 ft 489 kts 74°
2026-04-21 10:11 51.03430 -165.46744 32899 ft 489 kts 74°
2026-04-21 10:11 51.05512 -165.36505 32915 ft 489 kts 74°
2026-04-21 10:12 51.07591 -165.26228 32919 ft 489 kts 75°
2026-04-21 10:12 51.09621 -165.16153 32933 ft 489 kts 75°
2026-04-21 10:13 51.11676 -165.05901 32939 ft 489 kts 75°
2026-04-21 10:13 51.13732 -164.95586 32945 ft 489 kts 75°
2026-04-21 10:14 51.15761 -164.85349 32953 ft 489 kts 75°
2026-04-21 10:14 51.17799 -164.75020 32958 ft 489 kts 74°
2026-04-21 10:15 51.19830 -164.64671 32954 ft 489 kts 75°
2026-04-21 10:15 51.21836 -164.54395 32955 ft 488 kts 74°
2026-04-21 10:16 51.23843 -164.44052 32962 ft 488 kts 74°
2026-04-21 10:16 51.25826 -164.33784 32967 ft 487 kts 75°
2026-04-21 10:17 51.27813 -164.23433 32971 ft 487 kts 75°
2026-04-21 10:17 51.29771 -164.13171 32978 ft 487 kts 75°
2026-04-21 10:18 51.31741 -164.02799 32983 ft 486 kts 75°
2026-04-21 10:18 51.33676 -163.92551 32989 ft 486 kts 75°
2026-04-21 10:19 51.35611 -163.82250 32995 ft 486 kts 75°
2026-04-21 10:19 51.37548 -163.71878 33002 ft 485 kts 75°
2026-04-21 10:20 51.39455 -163.61614 33012 ft 485 kts 75°
2026-04-21 10:20 51.41367 -163.51266 33019 ft 485 kts 74°
2026-04-21 10:21 51.43261 -163.40953 33024 ft 484 kts 74°
2026-04-21 10:21 51.45155 -163.30588 33019 ft 484 kts 75°
2026-04-21 10:22 51.47033 -163.20248 33025 ft 484 kts 75°
2026-04-21 10:22 51.48898 -163.09929 33029 ft 484 kts 75°
2026-04-21 10:23 51.50758 -162.99567 33041 ft 484 kts 75°
2026-04-21 10:23 51.52597 -162.89269 33048 ft 483 kts 75°
2026-04-21 10:24 51.54431 -162.78932 33051 ft 482 kts 75°
2026-04-21 10:24 51.56258 -162.68585 33044 ft 483 kts 75°
2026-04-21 10:25 51.58068 -162.58278 33053 ft 483 kts 75°
2026-04-21 10:25 51.59877 -162.47911 33058 ft 482 kts 75°
2026-04-21 10:26 51.61669 -162.37585 33060 ft 482 kts 75°
2026-04-21 10:26 51.63457 -162.27219 33067 ft 481 kts 75°
2026-04-21 10:27 51.65237 -162.16835 33082 ft 481 kts 75°
2026-04-21 10:27 51.66996 -162.06503 33085 ft 481 kts 75°
2026-04-21 10:28 51.68751 -161.96143 33085 ft 480 kts 75°
2026-04-21 10:28 51.70496 -161.85788 33092 ft 481 kts 75°
2026-04-21 10:29 51.72228 -161.75452 33090 ft 481 kts 75°
2026-04-21 10:29 51.73954 -161.65076 33097 ft 480 kts 75°
2026-04-21 10:30 51.75665 -161.54726 33101 ft 480 kts 75°
2026-04-21 10:30 51.77373 -161.44333 33105 ft 480 kts 75°
2026-04-21 10:31 51.79063 -161.33980 33116 ft 480 kts 76°
2026-04-21 10:31 51.80760 -161.23531 33110 ft 480 kts 76°
2026-04-21 10:32 51.82432 -161.13182 33118 ft 480 kts 76°
2026-04-21 10:32 51.84104 -161.02753 33129 ft 480 kts 76°
2026-04-21 10:33 51.85763 -160.92337 33139 ft 479 kts 76°
2026-04-21 10:33 51.87408 -160.81946 33148 ft 479 kts 76°
2026-04-21 10:34 51.89045 -160.71538 33145 ft 478 kts 75°
2026-04-21 10:34 51.90663 -160.61186 33148 ft 478 kts 75°
2026-04-21 10:35 51.92286 -160.50742 33156 ft 479 kts 75°
2026-04-21 10:35 51.93890 -160.40347 33156 ft 478 kts 75°
2026-04-21 10:36 51.95490 -160.29921 33164 ft 478 kts 76°
2026-04-21 10:36 51.97077 -160.19492 33170 ft 477 kts 76°
2026-04-21 10:37 51.98649 -160.09084 33173 ft 477 kts 76°
2026-04-21 10:37 52.00210 -159.98682 33174 ft 477 kts 76°
2026-04-21 10:38 52.01734 -159.88225 33175 ft 477 kts 76°
2026-04-21 10:38 52.03243 -159.77719 33464 ft 482 kts 76°
2026-04-21 10:38 52.03999 -159.72417 33790 ft 481 kts 76°
2026-04-21 10:39 52.04739 -159.67209 34118 ft 479 kts 76°
2026-04-21 10:39 52.05484 -159.61952 34411 ft 478 kts 76°
2026-04-21 10:39 52.06229 -159.56686 34682 ft 477 kts 76°
2026-04-21 10:39 52.06961 -159.51486 34930 ft 477 kts 75°
2026-04-21 10:40 52.07703 -159.46202 35175 ft 476 kts 75°
2026-04-21 10:40 52.08426 -159.41040 35383 ft 476 kts 75°
2026-04-21 10:40 52.09158 -159.35796 35576 ft 475 kts 75°
2026-04-21 10:40 52.09890 -159.30541 35740 ft 475 kts 76°
2026-04-21 10:41 52.10617 -159.25299 35884 ft 476 kts 76°
2026-04-21 10:41 52.11334 -159.20103 36031 ft 477 kts 76°
2026-04-21 10:41 52.12057 -159.14845 36166 ft 477 kts 76°
2026-04-21 10:41 52.12781 -159.09563 36313 ft 478 kts 76°
2026-04-21 10:42 52.13496 -159.04324 36472 ft 478 kts 76°
2026-04-21 10:42 52.14211 -158.99066 36636 ft 477 kts 76°
2026-04-21 10:42 52.14925 -158.93803 36792 ft 477 kts 76°
2026-04-21 10:42 52.15631 -158.88577 36928 ft 477 kts 76°
2026-04-21 10:43 52.16337 -158.83337 37049 ft 477 kts 76°
2026-04-21 10:43 52.17043 -158.78079 37182 ft 477 kts 76°
2026-04-21 10:43 52.17750 -158.72795 37193 ft 478 kts 76°
2026-04-21 10:44 52.19143 -158.62303 37202 ft 478 kts 76°
2026-04-21 10:44 52.20536 -158.51759 37208 ft 477 kts 76°
2026-04-21 10:45 52.21916 -158.41216 37216 ft 477 kts 75°
2026-04-21 10:45 52.23291 -158.30644 37216 ft 477 kts 76°
2026-04-21 10:46 52.24652 -158.20097 37219 ft 477 kts 76°
2026-04-21 10:46 52.25997 -158.09596 37225 ft 476 kts 76°
2026-04-21 10:47 52.27338 -157.99033 37227 ft 476 kts 76°
2026-04-21 10:47 52.28664 -157.88501 37231 ft 476 kts 76°
2026-04-21 10:48 52.29986 -157.77945 37234 ft 476 kts 76°
2026-04-21 10:48 52.31296 -157.67383 37240 ft 476 kts 76°
2026-04-21 10:49 52.32603 -157.56786 37236 ft 476 kts 76°
2026-04-21 10:49 52.33896 -157.46214 37243 ft 476 kts 76°
2026-04-21 10:50 52.34967 -157.37401 37241 ft 476 kts 76°
2026-04-21 10:50 52.36451 -157.25067 37242 ft 475 kts 77°
2026-04-21 10:51 52.37710 -157.14514 37238 ft 475 kts 77°
2026-04-21 10:51 52.38958 -157.03972 37246 ft 474 kts 77°
2026-04-21 10:52 52.40197 -156.93424 37254 ft 475 kts 77°
2026-04-21 10:52 52.41434 -156.82800 37257 ft 475 kts 77°
2026-04-21 10:53 52.42654 -156.72240 37256 ft 476 kts 77°
2026-04-21 10:53 52.43871 -156.61618 37265 ft 475 kts 77°
2026-04-21 10:54 52.45081 -156.50967 37269 ft 475 kts 77°
2026-04-21 10:54 52.46269 -156.40422 37267 ft 475 kts 77°
2026-04-21 10:55 52.47456 -156.29791 37267 ft 475 kts 77°
2026-04-21 10:55 52.48635 -156.19145 37274 ft 475 kts 77°
2026-04-21 10:56 52.49797 -156.08553 37274 ft 475 kts 77°
2026-04-21 10:56 52.50955 -155.97911 37270 ft 475 kts 77°
2026-04-21 10:57 52.52106 -155.87251 37266 ft 475 kts 77°
2026-04-21 10:57 52.53243 -155.76636 37271 ft 475 kts 77°
2026-04-21 10:58 52.54367 -155.66017 37275 ft 478 kts 77°
2026-04-21 10:58 52.55500 -155.55241 37272 ft 479 kts 77°
2026-04-21 10:59 52.56618 -155.44493 37276 ft 479 kts 77°
2026-04-21 10:59 52.57727 -155.33731 37278 ft 479 kts 78°
2026-04-21 11:00 52.58830 -155.22935 37289 ft 480 kts 78°
2026-04-21 11:00 52.59918 -155.12189 37287 ft 480 kts 78°
2026-04-21 11:01 52.61001 -155.01386 37291 ft 480 kts 78°
2026-04-21 11:01 52.62074 -154.90567 37292 ft 480 kts 78°
2026-04-21 11:02 52.63659 -154.74420 37293 ft 480 kts 78°
2026-04-21 11:02 52.64709 -154.63580 37298 ft 480 kts 78°
2026-04-21 11:03 52.65748 -154.52753 37297 ft 481 kts 77°
2026-04-21 11:03 52.66774 -154.41951 37298 ft 481 kts 78°
2026-04-21 11:04 52.67796 -154.31088 37300 ft 482 kts 78°
2026-04-21 11:04 52.68807 -154.20221 37302 ft 482 kts 78°
2026-04-21 11:05 52.69810 -154.09315 37307 ft 483 kts 78°
2026-04-21 11:05 52.70808 -153.98375 37308 ft 483 kts 78°
2026-04-21 11:06 52.71787 -153.87524 37312 ft 482 kts 78°
2026-04-21 11:06 52.72761 -153.76608 37311 ft 482 kts 78°
2026-04-21 11:07 52.73722 -153.65732 37314 ft 482 kts 78°
2026-04-21 11:07 52.74680 -153.54755 37316 ft 483 kts 78°
2026-04-21 11:08 52.75620 -153.43852 37321 ft 484 kts 78°
2026-04-21 11:08 52.76562 -153.32828 37323 ft 484 kts 79°
2026-04-21 11:09 52.77487 -153.21874 37324 ft 484 kts 79°
2026-04-21 11:09 52.78401 -153.10944 37324 ft 484 kts 79°
2026-04-21 11:10 52.79308 -152.99948 37321 ft 484 kts 79°
2026-04-21 11:10 52.80206 -152.88948 37322 ft 485 kts 79°
2026-04-21 11:11 52.81092 -152.77946 37318 ft 485 kts 79°
2026-04-21 11:11 52.81968 -152.66934 37327 ft 485 kts 79°
2026-04-21 11:12 52.82837 -152.55894 37328 ft 485 kts 79°
2026-04-21 11:12 52.83690 -152.44942 37329 ft 486 kts 79°
2026-04-21 11:13 52.84539 -152.33893 37330 ft 486 kts 80°
2026-04-21 11:13 52.85379 -152.22804 37330 ft 486 kts 80°
2026-04-21 11:14 52.86207 -152.11717 37332 ft 486 kts 80°
2026-04-21 11:14 52.87020 -152.00717 37333 ft 486 kts 80°
2026-04-21 11:15 52.87831 -151.89619 37341 ft 486 kts 80°
2026-04-21 11:15 52.88623 -151.78616 37339 ft 486 kts 80°
2026-04-21 11:16 52.89410 -151.67548 37337 ft 486 kts 80°
2026-04-21 11:16 52.90187 -151.56459 37335 ft 487 kts 80°
2026-04-21 11:17 52.90953 -151.45360 37336 ft 488 kts 80°
2026-04-21 11:17 52.91715 -151.34195 37336 ft 489 kts 81°
2026-04-21 11:18 52.92466 -151.23027 37337 ft 488 kts 81°
2026-04-21 11:18 52.93201 -151.11923 37337 ft 489 kts 81°
2026-04-21 11:19 52.93931 -151.00731 37338 ft 489 kts 81°
2026-04-21 11:19 52.94648 -150.89578 37332 ft 488 kts 81°
2026-04-21 11:20 52.95354 -150.78426 37338 ft 488 kts 81°
2026-04-21 11:20 52.96050 -150.67268 37334 ft 489 kts 81°
2026-04-21 11:21 52.96738 -150.56074 37332 ft 489 kts 81°
2026-04-21 11:21 52.97412 -150.44946 37339 ft 490 kts 81°
2026-04-21 11:22 52.98078 -150.33727 37341 ft 490 kts 82°
2026-04-21 11:22 52.98734 -150.22490 37343 ft 491 kts 82°
2026-04-21 11:23 52.99377 -150.11266 37346 ft 491 kts 82°
2026-04-21 11:23 53.00158 -150.00060 37337 ft 489 kts 78°
2026-04-21 11:24 53.01558 -149.89073 37333 ft 488 kts 73°
2026-04-21 11:24 53.03137 -149.78204 37332 ft 488 kts 73°
2026-04-21 11:25 53.04713 -149.67248 37532 ft 488 kts 73°
2026-04-21 11:25 53.06261 -149.56329 37393 ft 486 kts 73°
2026-04-21 11:26 53.07792 -149.45435 37351 ft 486 kts 73°
2026-04-21 11:26 53.09314 -149.34521 37335 ft 486 kts 75°
2026-04-21 11:27 53.10827 -149.23602 37331 ft 487 kts 75°
2026-04-21 11:27 53.12323 -149.12711 37328 ft 487 kts 75°
2026-04-21 11:28 53.13814 -149.01765 37324 ft 487 kts 75°
2026-04-21 11:28 53.15296 -148.90810 37326 ft 487 kts 75°
2026-04-21 11:29 53.16771 -148.79833 37329 ft 487 kts 75°
2026-04-21 11:29 53.18233 -148.68870 37327 ft 487 kts 75°
2026-04-21 11:30 53.19686 -148.57893 37329 ft 487 kts 75°
2026-04-21 11:30 53.21128 -148.46896 37327 ft 487 kts 75°
2026-04-21 11:31 53.22564 -148.35872 37326 ft 487 kts 75°
2026-04-21 11:31 53.23984 -148.24893 37322 ft 487 kts 76°
2026-04-21 11:32 53.25400 -148.13856 37321 ft 488 kts 76°
2026-04-21 11:32 53.26806 -148.02802 37336 ft 488 kts 76°
2026-04-21 11:33 53.28202 -147.91744 37344 ft 488 kts 76°
2026-04-21 11:33 53.29578 -147.80745 37332 ft 487 kts 76°
2026-04-21 11:34 53.30955 -147.69656 37339 ft 488 kts 76°
2026-04-21 11:34 53.32319 -147.58585 37335 ft 488 kts 76°
2026-04-21 11:35 53.33664 -147.47575 37330 ft 488 kts 76°
2026-04-21 11:35 53.35011 -147.36464 37333 ft 488 kts 76°
2026-04-21 11:36 53.36349 -147.25334 37326 ft 489 kts 77°
2026-04-21 11:36 53.37670 -147.14258 37322 ft 489 kts 77°
2026-04-21 11:37 53.38990 -147.03088 37321 ft 489 kts 77°
2026-04-21 11:37 53.40289 -146.92004 37310 ft 489 kts 77°
2026-04-21 11:38 53.41589 -146.80833 37312 ft 489 kts 77°
2026-04-21 11:38 53.42872 -146.69672 37318 ft 489 kts 77°
2026-04-21 11:39 53.44146 -146.58510 37307 ft 490 kts 77°
2026-04-21 11:39 53.45414 -146.47330 37311 ft 490 kts 77°
2026-04-21 11:40 53.46669 -146.36139 37308 ft 490 kts 77°
2026-04-21 11:40 53.47919 -146.24904 37306 ft 490 kts 78°
2026-04-21 11:41 53.49148 -146.13748 37301 ft 490 kts 77°
2026-04-21 11:41 53.50378 -146.02489 37300 ft 491 kts 78°
2026-04-21 11:42 53.51593 -145.91260 37301 ft 492 kts 78°
2026-04-21 11:42 53.52805 -145.79959 37299 ft 492 kts 78°
2026-04-21 11:43 53.54006 -145.68658 37297 ft 493 kts 78°
2026-04-21 11:43 53.55189 -145.57405 37304 ft 493 kts 77°
2026-04-21 11:44 53.56370 -145.46059 37303 ft 492 kts 77°
2026-04-21 11:44 53.57533 -145.34796 37295 ft 492 kts 78°
2026-04-21 11:45 53.58693 -145.23457 37300 ft 493 kts 78°
2026-04-21 11:45 53.59840 -145.12106 37302 ft 493 kts 78°
2026-04-21 11:46 53.60973 -145.00806 37303 ft 494 kts 78°
2026-04-21 11:46 53.62102 -144.89426 37288 ft 494 kts 78°
2026-04-21 11:47 53.63216 -144.78088 37278 ft 495 kts 78°
2026-04-21 11:47 53.64324 -144.66690 37277 ft 495 kts 78°
2026-04-21 11:48 53.65426 -144.55225 37268 ft 495 kts 78°
2026-04-21 11:48 53.66513 -144.43811 37269 ft 496 kts 78°
2026-04-21 11:49 53.67585 -144.32430 37267 ft 496 kts 79°
2026-04-21 11:49 53.68654 -144.20955 37266 ft 496 kts 79°
2026-04-21 11:50 53.69713 -144.09473 37274 ft 496 kts 79°
2026-04-21 11:50 53.70760 -143.97983 37266 ft 497 kts 79°
2026-04-21 11:51 53.71792 -143.86539 37266 ft 497 kts 79°
2026-04-21 11:51 53.72821 -143.75006 37268 ft 497 kts 79°
2026-04-21 11:52 53.73830 -143.63565 37267 ft 498 kts 79°
2026-04-21 11:52 53.74834 -143.52061 37267 ft 498 kts 79°
2026-04-21 11:53 53.75831 -143.40503 37269 ft 498 kts 79°
2026-04-21 11:53 53.76809 -143.29016 37263 ft 498 kts 80°
2026-04-21 11:54 53.77786 -143.17412 37268 ft 498 kts 80°
2026-04-21 11:54 53.78741 -143.05922 37267 ft 498 kts 80°
2026-04-21 11:55 53.79695 -142.94312 37263 ft 498 kts 80°
2026-04-21 11:55 53.80632 -142.82785 37255 ft 499 kts 80°
2026-04-21 11:56 53.81563 -142.71170 37256 ft 500 kts 80°
2026-04-21 11:56 53.82482 -142.59566 37249 ft 501 kts 80°
2026-04-21 11:57 53.83395 -142.47899 37252 ft 501 kts 80°
2026-04-21 11:57 53.84291 -142.36284 37255 ft 502 kts 80°
2026-04-21 11:58 53.85185 -142.24568 37252 ft 503 kts 81°
2026-04-21 11:58 53.86064 -142.12857 37257 ft 502 kts 81°
2026-04-21 11:59 53.86927 -142.01211 37252 ft 503 kts 81°
2026-04-21 11:59 53.87788 -141.89471 37254 ft 503 kts 81°
2026-04-21 12:00 53.88634 -141.77762 37255 ft 503 kts 81°
2026-04-21 12:00 53.89467 -141.66046 37244 ft 503 kts 81°
2026-04-21 12:01 53.90286 -141.54373 37246 ft 503 kts 81°
2026-04-21 12:01 53.91099 -141.42607 37241 ft 504 kts 81°
2026-04-21 12:02 53.92296 -141.24986 37239 ft 505 kts 82°
2026-04-21 12:03 53.93084 -141.13184 37237 ft 505 kts 82°
2026-04-21 12:03 53.93859 -141.01369 37233 ft 506 kts 82°
2026-04-21 12:04 53.94622 -140.89578 37242 ft 507 kts 82°
2026-04-21 12:04 53.95377 -140.77698 37249 ft 507 kts 82°
2026-04-21 12:05 53.96119 -140.65848 37250 ft 507 kts 82°
2026-04-21 12:05 53.96844 -140.54034 37246 ft 507 kts 82°
2026-04-21 12:06 53.97566 -140.42134 37248 ft 508 kts 82°
2026-04-21 12:06 53.98276 -140.30219 37240 ft 507 kts 83°
2026-04-21 12:07 53.98971 -140.18337 37239 ft 507 kts 83°
2026-04-21 12:07 53.99650 -140.06453 37234 ft 508 kts 83°
2026-04-21 12:08 54.00337 -139.94598 37228 ft 507 kts 82°
2026-04-21 12:08 54.01066 -139.82724 37214 ft 506 kts 82°
2026-04-21 12:09 54.01785 -139.70848 37217 ft 507 kts 82°
2026-04-21 12:09 54.02483 -139.58984 37223 ft 507 kts 82°
2026-04-21 12:10 54.03167 -139.47113 37215 ft 507 kts 82°
2026-04-21 12:10 54.03838 -139.35271 37218 ft 507 kts 82°
2026-04-21 12:11 54.04500 -139.23383 37213 ft 508 kts 83°
2026-04-21 12:11 54.05149 -139.11484 37208 ft 508 kts 83°
2026-04-21 12:12 54.05789 -138.99524 37207 ft 509 kts 83°
2026-04-21 12:12 54.06418 -138.87538 37211 ft 510 kts 83°
2026-04-21 12:13 54.07036 -138.75574 37201 ft 509 kts 83°
2026-04-21 12:13 54.07642 -138.63602 37201 ft 509 kts 83°
2026-04-21 12:14 54.08235 -138.51608 37209 ft 510 kts 84°
2026-04-21 12:14 54.08815 -138.39647 37214 ft 510 kts 84°
2026-04-21 12:15 54.09383 -138.27692 37206 ft 510 kts 84°
2026-04-21 12:15 54.09943 -138.15620 37217 ft 511 kts 84°
2026-04-21 12:16 54.10490 -138.03618 37212 ft 512 kts 85°
2026-04-21 12:16 54.11026 -137.91566 37204 ft 512 kts 85°
2026-04-21 12:17 54.11549 -137.79526 37194 ft 512 kts 85°
2026-04-21 12:17 54.12061 -137.67482 37195 ft 512 kts 85°
2026-04-21 12:18 54.12563 -137.55360 37195 ft 513 kts 85°
2026-04-21 12:18 54.13050 -137.43294 37190 ft 512 kts 85°
2026-04-21 12:19 54.13526 -137.31245 37196 ft 513 kts 86°
2026-04-21 12:19 54.13990 -137.19185 37196 ft 513 kts 86°
2026-04-21 12:20 54.14441 -137.07115 37194 ft 513 kts 86°
2026-04-21 12:20 54.14882 -136.94948 37187 ft 513 kts 86°
2026-04-21 12:21 54.15310 -136.82878 37190 ft 514 kts 86°
2026-04-21 12:21 54.15730 -136.70752 37193 ft 513 kts 86°
2026-04-21 12:22 54.16136 -136.58647 37186 ft 514 kts 86°
2026-04-21 12:22 54.16525 -136.46596 37187 ft 514 kts 86°
2026-04-21 12:23 54.16907 -136.34436 37181 ft 515 kts 87°
2026-04-21 12:23 54.17275 -136.22286 37175 ft 514 kts 87°
2026-04-21 12:24 54.17632 -136.10120 37174 ft 515 kts 87°
2026-04-21 12:24 54.17977 -135.97975 37174 ft 514 kts 87°
2026-04-21 12:25 54.18308 -135.85844 37164 ft 514 kts 87°
2026-04-21 12:25 54.18628 -135.73694 37161 ft 514 kts 87°
2026-04-21 12:26 54.18935 -135.61543 37164 ft 515 kts 87°
2026-04-21 12:26 54.19231 -135.49359 37152 ft 515 kts 87°
2026-04-21 12:27 54.19513 -135.37216 37157 ft 515 kts 87°
2026-04-21 12:27 54.19786 -135.25009 37152 ft 516 kts 88°
2026-04-21 12:28 54.20045 -135.12769 37152 ft 516 kts 88°
2026-04-21 12:28 54.20291 -135.00623 37150 ft 517 kts 88°
2026-04-21 12:29 54.20525 -134.88414 37153 ft 517 kts 88°
2026-04-21 12:29 54.20748 -134.76138 37145 ft 517 kts 88°
2026-04-21 12:30 54.20958 -134.63942 37150 ft 517 kts 88°
2026-04-21 12:30 54.21156 -134.51726 37147 ft 517 kts 89°
2026-04-21 12:31 54.21341 -134.39545 37140 ft 517 kts 89°
2026-04-21 12:31 54.21515 -134.27240 37131 ft 517 kts 90°
2026-04-21 12:32 54.21674 -134.15047 37131 ft 516 kts 90°
2026-04-21 12:32 54.21819 -134.02826 37131 ft 517 kts 89°
2026-04-21 12:33 54.21955 -133.90547 37133 ft 518 kts 90°
2026-04-21 12:33 54.22074 -133.78383 37118 ft 518 kts 90°
2026-04-21 12:34 54.22172 -133.66124 37123 ft 517 kts 91°
2026-04-21 12:34 54.21814 -133.53923 37119 ft 517 kts 96°
2026-04-21 12:35 54.21233 -133.41739 37116 ft 517 kts 96°
2026-04-21 12:35 54.20632 -133.29498 37118 ft 516 kts 97°
2026-04-21 12:36 54.20031 -133.17343 37114 ft 516 kts 97°
2026-04-21 12:36 54.19420 -133.05202 37101 ft 516 kts 97°
2026-04-21 12:37 54.18796 -132.93010 37093 ft 516 kts 97°
2026-04-21 12:37 54.18166 -132.80914 37094 ft 515 kts 97°
2026-04-21 12:38 54.17520 -132.68751 37093 ft 516 kts 97°
2026-04-21 12:38 54.16861 -132.56606 37091 ft 516 kts 97°
2026-04-21 12:39 54.16196 -132.44548 37096 ft 515 kts 97°
2026-04-21 12:39 54.15513 -132.32391 37095 ft 516 kts 98°
2026-04-21 12:40 54.14822 -132.20309 37082 ft 515 kts 98°
2026-04-21 12:40 54.14113 -132.08144 37087 ft 516 kts 98°
2026-04-21 12:41 54.13394 -131.96019 37080 ft 516 kts 98°
2026-04-21 12:41 54.12662 -131.83919 37074 ft 515 kts 98°
2026-04-21 12:42 54.11919 -131.71826 37074 ft 516 kts 99°
2026-04-21 12:42 54.11164 -131.59723 37073 ft 515 kts 98°
2026-04-21 12:43 54.10399 -131.47647 37072 ft 515 kts 98°
2026-04-21 12:43 54.09620 -131.35559 37051 ft 516 kts 99°
2026-04-21 12:44 54.08830 -131.23473 37065 ft 515 kts 99°
2026-04-21 12:44 54.08027 -131.11403 37059 ft 515 kts 100°
2026-04-21 12:45 54.07211 -130.99316 37041 ft 515 kts 100°
2026-04-21 12:45 54.06381 -130.87247 37032 ft 516 kts 100°
2026-04-21 12:46 54.05544 -130.75197 36844 ft 516 kts 100°
2026-04-21 12:46 54.05121 -130.69186 36946 ft 517 kts 100°
2026-04-21 12:46 54.04690 -130.63113 36983 ft 517 kts 100°
2026-04-21 12:47 54.03821 -130.51018 37013 ft 518 kts 100°
2026-04-21 12:47 54.02942 -130.38936 37026 ft 517 kts 100°
2026-04-21 12:48 54.02049 -130.26825 37027 ft 517 kts 101°
2026-04-21 12:48 54.01145 -130.14755 37013 ft 516 kts 101°
2026-04-21 12:49 54.00226 -130.02695 36980 ft 516 kts 101°
2026-04-21 12:49 53.99432 -129.90671 36964 ft 516 kts 99°
2026-04-21 12:50 53.98768 -129.78561 36951 ft 517 kts 99°
2026-04-21 12:50 53.98078 -129.66429 36978 ft 517 kts 99°
2026-04-21 12:51 53.97364 -129.54358 36952 ft 517 kts 99°
2026-04-21 12:51 53.96648 -129.42572 36954 ft 517 kts 99°
2026-04-21 12:52 53.95898 -129.30455 36926 ft 518 kts 100°
2026-04-21 12:52 53.95139 -129.18391 36914 ft 517 kts 100°
2026-04-21 12:53 53.94360 -129.06245 36891 ft 517 kts 100°
2026-04-21 12:53 53.93577 -128.94199 36917 ft 517 kts 100°
2026-04-21 12:54 53.92778 -128.82095 36913 ft 518 kts 100°
2026-04-21 12:54 53.91966 -128.70000 36936 ft 518 kts 100°
2026-04-21 12:55 53.91148 -128.57987 36923 ft 517 kts 100°
2026-04-21 12:55 53.90311 -128.45872 36929 ft 517 kts 100°
2026-04-21 12:56 53.89469 -128.33859 36918 ft 516 kts 101°
2026-04-21 12:56 53.88612 -128.21796 36910 ft 515 kts 101°
2026-04-21 12:57 53.87747 -128.09827 36904 ft 514 kts 101°
2026-04-21 12:57 53.86874 -127.97894 36906 ft 514 kts 101°
2026-04-21 12:58 53.85984 -127.85924 36896 ft 514 kts 101°
2026-04-21 12:58 53.85081 -127.73928 36897 ft 514 kts 101°
2026-04-21 12:59 53.84170 -127.62004 36892 ft 515 kts 101°
2026-04-21 12:59 53.83242 -127.50001 36908 ft 515 kts 101°
2026-04-21 13:00 53.82304 -127.38048 36908 ft 515 kts 101°
2026-04-21 13:00 53.81355 -127.26081 36898 ft 515 kts 102°
2026-04-21 13:01 53.80391 -127.14122 36896 ft 516 kts 102°
2026-04-21 13:01 53.79417 -127.02157 36886 ft 516 kts 102°
2026-04-21 13:02 53.78433 -126.90211 36872 ft 515 kts 102°
2026-04-21 13:02 53.76930 -126.72258 36876 ft 516 kts 102°
2026-04-21 13:03 53.75912 -126.60315 36863 ft 517 kts 102°
2026-04-21 13:03 53.74883 -126.48376 36887 ft 516 kts 102°
2026-04-21 13:04 53.73839 -126.36411 36869 ft 517 kts 102°
2026-04-21 13:04 53.72790 -126.24497 36840 ft 516 kts 103°
2026-04-21 13:05 53.71727 -126.12589 36856 ft 516 kts 103°
2026-04-21 13:05 53.70645 -126.00629 36851 ft 516 kts 103°
2026-04-21 13:06 53.69559 -125.88724 36864 ft 516 kts 103°
2026-04-21 13:06 53.68463 -125.76831 36844 ft 515 kts 103°
2026-04-21 13:07 53.67346 -125.64877 36857 ft 516 kts 103°
2026-04-21 13:07 53.66226 -125.53012 36850 ft 515 kts 103°
2026-04-21 13:08 53.65092 -125.41120 36844 ft 515 kts 103°
2026-04-21 13:08 53.63951 -125.29298 36847 ft 514 kts 104°
2026-04-21 13:09 53.62795 -125.17444 36864 ft 515 kts 104°
2026-04-21 13:09 53.61626 -125.05605 36871 ft 515 kts 104°
2026-04-21 13:10 53.60448 -124.93797 36845 ft 515 kts 104°
2026-04-21 13:10 53.59257 -124.81961 36838 ft 515 kts 104°
2026-04-21 13:11 53.58053 -124.70127 36833 ft 515 kts 104°
2026-04-21 13:11 53.56837 -124.58298 36835 ft 516 kts 104°
2026-04-21 13:12 53.55605 -124.46421 36840 ft 515 kts 104°
2026-04-21 13:12 53.54368 -124.34623 36855 ft 515 kts 105°
2026-04-21 13:13 53.53121 -124.22832 36841 ft 515 kts 105°
2026-04-21 13:13 53.51862 -124.11047 36855 ft 514 kts 105°
2026-04-21 13:14 53.50588 -123.99247 36854 ft 514 kts 105°
2026-04-21 13:14 53.49302 -123.87463 36846 ft 515 kts 105°
2026-04-21 13:15 53.48008 -123.75710 36856 ft 515 kts 105°
2026-04-21 13:15 53.46707 -123.63991 36849 ft 514 kts 105°
2026-04-21 13:16 53.45391 -123.52261 36849 ft 513 kts 105°
2026-04-21 13:16 53.44064 -123.40551 36836 ft 514 kts 105°
2026-04-21 13:17 53.42719 -123.28790 36837 ft 514 kts 105°
2026-04-21 13:17 53.41368 -123.17075 36843 ft 514 kts 105°
2026-04-21 13:18 53.40006 -123.05380 36841 ft 514 kts 106°
2026-04-21 13:18 53.38637 -122.93726 36834 ft 514 kts 106°
2026-04-21 13:19 53.37243 -122.81981 36837 ft 514 kts 106°
2026-04-21 13:19 53.35853 -122.70355 36844 ft 513 kts 106°
2026-04-21 13:20 53.34444 -122.58684 36837 ft 514 kts 106°
2026-04-21 13:20 53.33021 -122.47002 36840 ft 514 kts 105°
2026-04-21 13:21 53.31594 -122.35351 36840 ft 514 kts 105°
2026-04-21 13:21 53.30153 -122.23709 36839 ft 513 kts 107°
2026-04-21 13:22 53.28701 -122.12080 36836 ft 513 kts 107°
2026-04-21 13:22 53.27232 -122.00433 36860 ft 514 kts 107°
2026-04-21 13:23 53.25758 -121.88819 36865 ft 514 kts 107°
2026-04-21 13:23 53.24268 -121.77177 36861 ft 514 kts 107°
2026-04-21 13:24 53.22768 -121.65569 36874 ft 515 kts 107°
2026-04-21 13:24 53.21253 -121.53931 36851 ft 515 kts 107°
2026-04-21 13:25 53.19732 -121.42333 36851 ft 515 kts 107°
2026-04-21 13:25 53.18187 -121.30667 36855 ft 515 kts 107°
2026-04-21 13:26 53.16644 -121.19083 36865 ft 514 kts 107°
2026-04-21 13:26 53.15087 -121.07508 36879 ft 515 kts 108°
2026-04-21 13:27 53.13516 -120.95937 36880 ft 515 kts 108°
2026-04-21 13:27 53.11929 -120.84312 36902 ft 516 kts 108°
2026-04-21 13:28 53.10341 -120.72762 36910 ft 516 kts 108°
2026-04-21 13:28 53.08725 -120.61129 36894 ft 517 kts 108°
2026-04-21 13:29 53.07106 -120.49563 36893 ft 518 kts 108°
2026-04-21 13:29 53.05466 -120.37933 36882 ft 518 kts 108°
2026-04-21 13:30 53.03815 -120.26322 36883 ft 517 kts 108°
2026-04-21 13:30 53.02161 -120.14779 36870 ft 518 kts 108°
2026-04-21 13:31 53.00482 -120.03168 36857 ft 518 kts 108°
2026-04-21 13:31 52.99120 -119.91412 36850 ft 522 kts 104°
2026-04-21 13:32 52.97914 -119.79576 36854 ft 522 kts 104°
2026-04-21 13:32 52.96697 -119.67762 36866 ft 522 kts 104°
2026-04-21 13:33 52.95458 -119.55976 36882 ft 522 kts 104°
2026-04-21 13:33 52.94202 -119.44182 36894 ft 522 kts 104°
2026-04-21 13:34 52.92933 -119.32376 36889 ft 522 kts 105°
2026-04-21 13:34 52.91647 -119.20556 36883 ft 522 kts 105°
2026-04-21 13:35 52.90362 -119.08852 36885 ft 522 kts 105°
2026-04-21 13:35 52.89056 -118.97064 36888 ft 522 kts 105°
2026-04-21 13:36 52.87738 -118.85281 36873 ft 523 kts 105°
2026-04-21 13:36 52.86407 -118.73492 36859 ft 523 kts 105°
2026-04-21 13:37 52.85061 -118.61681 36859 ft 524 kts 105°
2026-04-21 13:37 52.83704 -118.49898 36857 ft 524 kts 105°
2026-04-21 13:38 52.82340 -118.38141 36862 ft 525 kts 105°
2026-04-21 13:38 52.80953 -118.26295 36866 ft 526 kts 106°
2026-04-21 13:39 52.79562 -118.14517 36867 ft 525 kts 106°
2026-04-21 13:39 52.78153 -118.02733 36873 ft 527 kts 106°
2026-04-21 13:40 52.76732 -117.90921 36883 ft 526 kts 106°
2026-04-21 13:40 52.75301 -117.79130 36867 ft 527 kts 106°
2026-04-21 13:41 52.73854 -117.67315 36871 ft 527 kts 106°
2026-04-21 13:41 52.72400 -117.55547 36879 ft 527 kts 106°
2026-04-21 13:42 52.70929 -117.43735 36876 ft 527 kts 106°
2026-04-21 13:42 52.69440 -117.31902 36872 ft 528 kts 107°
2026-04-21 13:43 52.67941 -117.20081 36885 ft 528 kts 107°
2026-04-21 13:43 52.66440 -117.08334 36885 ft 528 kts 107°
2026-04-21 13:44 52.64914 -116.96517 37099 ft 531 kts 107°
2026-04-21 13:44 52.64140 -116.90556 37452 ft 529 kts 107°
2026-04-21 13:44 52.63379 -116.84715 37787 ft 527 kts 107°
2026-04-21 13:45 52.62606 -116.78786 38050 ft 527 kts 107°
2026-04-21 13:45 52.61843 -116.72984 38341 ft 525 kts 107°
2026-04-21 13:45 52.61069 -116.67136 38599 ft 525 kts 107°
2026-04-21 13:45 52.60297 -116.61301 38781 ft 526 kts 107°
2026-04-21 13:46 52.58734 -116.49577 38890 ft 528 kts 107°
2026-04-21 13:46 52.57148 -116.37759 38882 ft 528 kts 107°
2026-04-21 13:47 52.55568 -116.26081 38879 ft 526 kts 108°
2026-04-21 13:47 52.53965 -116.14368 38877 ft 528 kts 108°
2026-04-21 13:48 52.52352 -116.02636 38880 ft 528 kts 108°
2026-04-21 13:48 52.50726 -115.90936 38867 ft 529 kts 108°
2026-04-21 13:49 52.49062 -115.79044 38864 ft 530 kts 108°
2026-04-21 13:49 52.47413 -115.67327 38868 ft 531 kts 108°
2026-04-21 13:50 52.45747 -115.55618 38860 ft 531 kts 108°
2026-04-21 13:50 52.44064 -115.43848 38864 ft 531 kts 108°
2026-04-21 13:51 52.42368 -115.32085 38845 ft 532 kts 108°
2026-04-21 13:51 52.40665 -115.20365 38845 ft 533 kts 108°
2026-04-21 13:52 52.38946 -115.08625 38837 ft 533 kts 108°
2026-04-21 13:52 52.37214 -114.96879 38835 ft 533 kts 109°
2026-04-21 13:53 52.35467 -114.85148 38838 ft 534 kts 108°
2026-04-21 13:53 52.33705 -114.73387 38832 ft 534 kts 108°
2026-04-21 13:54 52.31932 -114.61626 38835 ft 535 kts 108°
2026-04-21 13:54 52.30148 -114.49881 38824 ft 535 kts 108°
2026-04-21 13:55 52.28347 -114.38130 38821 ft 535 kts 108°
2026-04-21 13:55 52.26540 -114.26403 38820 ft 535 kts 109°
2026-04-21 13:56 52.24704 -114.14609 38812 ft 535 kts 109°
2026-04-21 13:56 52.22875 -114.02911 38803 ft 536 kts 109°
2026-04-21 13:57 52.21029 -113.91200 38782 ft 536 kts 109°
2026-04-21 13:57 52.19172 -113.79504 38785 ft 536 kts 109°
2026-04-21 13:58 52.17294 -113.67757 38797 ft 536 kts 109°
2026-04-21 13:58 52.15416 -113.56077 38805 ft 536 kts 109°
2026-04-21 13:59 52.13527 -113.44429 38803 ft 536 kts 108°
2026-04-21 13:59 52.11626 -113.32764 38799 ft 536 kts 109°
2026-04-21 14:00 52.09715 -113.21133 38832 ft 535 kts 109°
2026-04-21 14:00 52.07788 -113.09496 38806 ft 534 kts 109°
2026-04-21 14:01 52.05853 -112.97882 38801 ft 534 kts 109°
2026-04-21 14:01 52.03913 -112.86324 38801 ft 535 kts 109°
2026-04-21 14:02 52.01953 -112.74711 38806 ft 536 kts 109°
2026-04-21 14:03 51.98987 -112.57268 38803 ft 534 kts 109°
2026-04-21 14:03 51.97002 -112.45711 38804 ft 535 kts 109°
2026-04-21 14:04 51.95000 -112.34148 38797 ft 536 kts 110°
2026-04-21 14:04 51.92989 -112.22574 38792 ft 535 kts 110°
2026-04-21 14:05 51.90964 -112.11015 38792 ft 535 kts 110°
2026-04-21 14:05 51.88939 -111.99519 38790 ft 534 kts 109°
2026-04-21 14:06 51.86901 -111.88021 38798 ft 533 kts 109°
2026-04-21 14:06 51.84850 -111.76531 38803 ft 534 kts 110°
2026-04-21 14:07 51.82779 -111.65004 38804 ft 534 kts 109°
2026-04-21 14:07 51.80715 -111.53582 38813 ft 534 kts 109°
2026-04-21 14:08 51.78627 -111.42111 38803 ft 534 kts 109°
2026-04-21 14:08 51.76523 -111.30622 38796 ft 534 kts 110°
2026-04-21 14:09 51.74413 -111.19159 38803 ft 535 kts 110°
2026-04-21 14:09 51.72300 -111.07755 38807 ft 535 kts 110°
2026-04-21 14:10 51.70165 -110.96305 38807 ft 535 kts 110°
2026-04-21 14:10 51.68019 -110.84877 38809 ft 535 kts 110°
2026-04-21 14:11 51.65861 -110.73453 38806 ft 535 kts 110°
2026-04-21 14:11 51.63697 -110.62054 38801 ft 534 kts 110°
2026-04-21 14:12 51.61525 -110.50700 38802 ft 535 kts 110°
2026-04-21 14:12 51.59339 -110.39343 38792 ft 535 kts 110°
2026-04-21 14:13 51.57134 -110.27950 38792 ft 535 kts 111°
2026-04-21 14:13 51.54912 -110.16556 38792 ft 535 kts 111°
2026-04-21 14:14 51.52652 -110.05317 38794 ft 532 kts 114°
2026-04-21 14:14 51.49752 -109.94496 38787 ft 528 kts 122°
2026-04-21 14:15 51.46198 -109.84242 38790 ft 526 kts 124°
2026-04-21 14:15 51.42588 -109.74139 38783 ft 527 kts 124°
2026-04-21 14:16 51.38958 -109.63950 38785 ft 527 kts 124°
2026-04-21 14:16 51.35338 -109.53799 38784 ft 528 kts 124°
2026-04-21 14:17 51.31715 -109.43657 38785 ft 528 kts 124°
2026-04-21 14:17 51.28072 -109.33508 38781 ft 527 kts 125°
2026-04-21 14:18 51.24426 -109.23390 38784 ft 527 kts 125°
2026-04-21 14:18 51.20799 -109.13363 38783 ft 526 kts 125°
2026-04-21 14:19 51.17151 -109.03315 38785 ft 527 kts 124°
2026-04-21 14:19 51.13492 -108.93282 38768 ft 526 kts 124°
2026-04-21 14:20 51.09808 -108.83218 38769 ft 527 kts 124°
2026-04-21 14:20 51.06134 -108.73219 38766 ft 527 kts 124°
2026-04-21 14:21 51.02432 -108.63179 38780 ft 527 kts 124°
2026-04-21 14:21 50.98724 -108.53162 38784 ft 527 kts 124°
2026-04-21 14:22 50.95035 -108.43234 38785 ft 526 kts 124°
2026-04-21 14:22 50.91301 -108.33236 38783 ft 527 kts 125°
2026-04-21 14:23 50.87575 -108.23286 38783 ft 527 kts 125°
2026-04-21 14:23 50.83836 -108.13347 38786 ft 528 kts 125°
2026-04-21 14:24 50.80082 -108.03397 38788 ft 528 kts 126°
2026-04-21 14:24 50.76315 -107.93461 38791 ft 529 kts 126°
2026-04-21 14:25 50.72545 -107.83550 38789 ft 528 kts 126°
2026-04-21 14:25 50.68787 -107.73717 38787 ft 528 kts 125°
2026-04-21 14:26 50.65001 -107.63843 38785 ft 528 kts 126°
2026-04-21 14:26 50.61197 -107.53963 38780 ft 529 kts 125°
2026-04-21 14:27 50.57376 -107.44071 38783 ft 530 kts 126°
2026-04-21 14:27 50.53569 -107.34251 38781 ft 530 kts 126°
2026-04-21 14:28 50.49739 -107.24409 38783 ft 529 kts 126°
2026-04-21 14:28 50.45904 -107.14600 38788 ft 530 kts 126°
2026-04-21 14:29 50.42045 -107.04761 38798 ft 530 kts 126°
2026-04-21 14:29 50.38200 -106.94998 38795 ft 531 kts 126°
2026-04-21 14:30 50.34317 -106.85174 38795 ft 531 kts 126°
2026-04-21 14:30 50.30455 -106.75434 38794 ft 531 kts 126°
2026-04-21 14:31 50.26546 -106.65617 38790 ft 532 kts 126°
2026-04-21 14:31 50.22656 -106.55885 38785 ft 532 kts 126°
2026-04-21 14:32 50.18717 -106.46076 38781 ft 534 kts 126°
2026-04-21 14:32 50.14789 -106.36326 38785 ft 535 kts 126°
2026-04-21 14:33 50.10822 -106.26505 38786 ft 535 kts 127°
2026-04-21 14:33 50.06878 -106.16795 38785 ft 534 kts 127°
2026-04-21 14:34 50.02897 -106.07031 38789 ft 535 kts 127°
2026-04-21 14:34 49.99062 -105.97199 38786 ft 538 kts 122°
2026-04-21 14:35 49.95600 -105.86961 38784 ft 539 kts 121°
2026-04-21 14:35 49.92139 -105.76675 38789 ft 540 kts 121°
2026-04-21 14:36 49.88638 -105.66346 38791 ft 539 kts 121°
2026-04-21 14:36 49.85152 -105.56142 38792 ft 541 kts 121°
2026-04-21 14:37 49.81622 -105.45850 38798 ft 541 kts 120°
2026-04-21 14:37 49.78108 -105.35645 38798 ft 542 kts 120°
2026-04-21 14:38 49.74556 -105.25374 38796 ft 542 kts 121°
2026-04-21 14:38 49.71003 -105.15134 38800 ft 543 kts 121°
2026-04-21 14:39 49.67437 -105.04913 38796 ft 543 kts 121°
2026-04-21 14:39 49.63849 -104.94660 38800 ft 544 kts 121°
2026-04-21 14:40 49.60256 -104.84435 38804 ft 544 kts 121°
2026-04-21 14:40 49.56673 -104.74277 38805 ft 545 kts 121°
2026-04-21 14:41 49.53045 -104.64037 38803 ft 545 kts 121°
2026-04-21 14:41 49.49411 -104.53821 38801 ft 546 kts 121°
2026-04-21 14:42 49.45793 -104.43683 38810 ft 545 kts 121°
2026-04-21 14:42 49.42147 -104.33508 38814 ft 545 kts 121°
2026-04-21 14:43 49.38502 -104.23383 38824 ft 545 kts 121°
2026-04-21 14:43 49.34836 -104.13234 38827 ft 545 kts 121°
2026-04-21 14:44 49.31166 -104.03108 38837 ft 545 kts 121°
2026-04-21 14:44 49.27501 -103.93044 38834 ft 545 kts 121°
2026-04-21 14:45 49.23802 -103.82925 38840 ft 545 kts 121°
2026-04-21 14:45 49.20110 -103.72859 38844 ft 545 kts 121°
2026-04-21 14:46 49.16389 -103.62760 38845 ft 546 kts 121°
2026-04-21 14:46 49.12681 -103.52731 38849 ft 546 kts 121°
2026-04-21 14:47 49.08968 -103.42725 38850 ft 546 kts 120°
2026-04-21 14:47 49.05204 -103.32621 38853 ft 546 kts 121°
2026-04-21 14:48 49.01457 -103.22594 38854 ft 546 kts 121°
2026-04-21 14:48 48.97678 -103.12534 38856 ft 547 kts 121°
2026-04-21 14:49 48.93896 -103.02501 38852 ft 547 kts 121°
2026-04-21 14:49 48.90103 -102.92477 38850 ft 547 kts 121°
2026-04-21 14:50 48.86936 -102.84130 38853 ft 547 kts 121°
2026-04-21 14:50 48.82519 -102.72535 38860 ft 546 kts 121°
2026-04-21 14:51 48.78705 -102.62573 38864 ft 546 kts 121°
2026-04-21 14:51 48.74913 -102.52700 38865 ft 546 kts 121°
2026-04-21 14:52 48.71097 -102.42802 38868 ft 547 kts 120°
2026-04-21 14:52 48.67262 -102.32893 38869 ft 546 kts 121°
2026-04-21 14:53 48.63434 -102.23041 38878 ft 547 kts 121°
2026-04-21 14:53 48.59587 -102.13173 38882 ft 547 kts 121°
2026-04-21 14:54 48.55736 -102.03327 38885 ft 546 kts 121°
2026-04-21 14:54 48.51868 -101.93487 38890 ft 545 kts 121°
2026-04-21 14:55 48.48005 -101.83688 38899 ft 546 kts 121°
2026-04-21 14:55 48.44149 -101.73941 38907 ft 546 kts 121°
2026-04-21 14:56 48.40255 -101.64140 38920 ft 546 kts 121°
2026-04-21 14:56 48.36373 -101.54403 38927 ft 546 kts 121°
2026-04-21 14:57 48.32474 -101.44666 38932 ft 546 kts 120°
2026-04-21 14:57 48.28564 -101.34940 38932 ft 546 kts 121°
2026-04-21 14:58 48.24801 -101.25080 38936 ft 547 kts 117°
2026-04-21 14:58 48.21376 -101.14974 38940 ft 547 kts 115°
2026-04-21 14:59 48.17945 -101.04817 38939 ft 546 kts 115°
2026-04-21 14:59 48.14507 -100.94736 38941 ft 547 kts 116°
2026-04-21 15:00 48.11044 -100.84648 38942 ft 548 kts 116°
2026-04-21 15:00 48.07561 -100.74534 38945 ft 549 kts 115°
2026-04-21 15:01 48.04077 -100.64458 38946 ft 549 kts 115°
2026-04-21 15:01 48.00578 -100.54378 38947 ft 549 kts 116°
2026-04-21 15:02 47.97063 -100.44296 38949 ft 549 kts 116°
2026-04-21 15:02 47.93551 -100.34289 38951 ft 548 kts 117°
2026-04-21 15:03 47.90017 -100.24226 38956 ft 548 kts 116°
2026-04-21 15:03 47.86488 -100.14192 38960 ft 548 kts 116°
2026-04-21 15:04 47.82929 -100.04147 38965 ft 548 kts 116°
2026-04-21 15:04 47.79368 -99.94168 38965 ft 549 kts 116°
2026-04-21 15:05 47.75812 -99.84179 38967 ft 549 kts 115°
2026-04-21 15:05 47.70441 -99.69189 38973 ft 549 kts 116°
2026-04-21 15:06 47.66861 -99.59251 38975 ft 549 kts 115°
2026-04-21 15:06 47.63260 -99.49298 38978 ft 549 kts 116°
2026-04-21 15:07 47.59654 -99.39372 38979 ft 548 kts 116°
2026-04-21 15:07 47.56049 -99.29470 38976 ft 548 kts 116°
2026-04-21 15:08 47.52434 -99.19578 38978 ft 548 kts 116°
2026-04-21 15:08 47.48828 -99.09749 38978 ft 548 kts 116°
2026-04-21 15:09 47.45206 -98.99913 38975 ft 547 kts 116°
2026-04-21 15:09 47.41573 -98.90092 38977 ft 548 kts 116°
2026-04-21 15:10 47.37931 -98.80280 38977 ft 547 kts 116°
2026-04-21 15:10 47.34269 -98.70445 38980 ft 547 kts 116°
2026-04-21 15:11 47.30618 -98.60676 38982 ft 545 kts 115°
2026-04-21 15:11 47.26985 -98.50995 38979 ft 546 kts 115°
2026-04-21 15:12 47.23294 -98.41196 38988 ft 545 kts 115°
2026-04-21 15:12 47.19614 -98.31446 38992 ft 547 kts 116°
2026-04-21 15:13 47.15950 -98.21790 38988 ft 546 kts 116°
2026-04-21 15:13 47.12252 -98.12071 38993 ft 547 kts 116°
2026-04-21 15:14 47.08537 -98.02346 39005 ft 548 kts 116°
2026-04-21 15:14 47.04824 -97.92657 39009 ft 548 kts 116°
2026-04-21 15:15 47.01078 -97.82918 39004 ft 547 kts 116°
2026-04-21 15:15 46.97355 -97.73271 39001 ft 548 kts 116°
2026-04-21 15:16 46.93589 -97.63554 38993 ft 549 kts 116°
2026-04-21 15:16 46.89853 -97.53950 38995 ft 547 kts 116°
2026-04-21 15:17 46.86095 -97.44332 38993 ft 546 kts 116°
2026-04-21 15:17 46.82330 -97.34712 38997 ft 546 kts 116°
2026-04-21 15:18 46.78578 -97.25165 38996 ft 545 kts 117°
2026-04-21 15:18 46.74810 -97.15612 39000 ft 545 kts 116°
2026-04-21 15:19 46.71041 -97.06107 38996 ft 545 kts 116°
2026-04-21 15:19 46.67245 -96.96548 38998 ft 544 kts 116°
2026-04-21 15:20 46.63464 -96.87061 38997 ft 543 kts 116°
2026-04-21 15:20 46.59684 -96.77610 38994 ft 542 kts 116°
2026-04-21 15:21 46.55890 -96.68151 38990 ft 543 kts 117°
2026-04-21 15:21 46.52100 -96.58746 38989 ft 542 kts 116°
2026-04-21 15:22 46.48295 -96.49331 38981 ft 542 kts 116°
2026-04-21 15:22 46.44488 -96.39934 38978 ft 541 kts 116°
2026-04-21 15:23 46.40686 -96.30595 38974 ft 542 kts 117°
2026-04-21 15:23 46.36854 -96.21198 38973 ft 542 kts 117°
2026-04-21 15:24 46.33046 -96.11919 38978 ft 540 kts 118°
2026-04-21 15:24 46.29211 -96.02607 38975 ft 539 kts 117°
2026-04-21 15:25 46.25375 -95.93297 38962 ft 539 kts 117°
2026-04-21 15:25 46.21565 -95.84071 38957 ft 538 kts 117°
2026-04-21 15:26 46.17719 -95.74805 38951 ft 537 kts 117°
2026-04-21 15:26 46.15792 -95.70196 38850 ft 537 kts 117°
2026-04-21 15:26 46.13873 -95.65585 38920 ft 538 kts 118°
2026-04-21 15:27 46.10047 -95.56424 38951 ft 538 kts 117°
2026-04-21 15:27 46.06176 -95.47218 38960 ft 537 kts 117°
2026-04-21 15:28 46.02335 -95.38107 38967 ft 536 kts 118°
2026-04-21 15:28 45.98466 -95.28920 38955 ft 536 kts 118°
2026-04-21 15:29 45.94619 -95.19841 38955 ft 536 kts 118°
2026-04-21 15:29 45.90751 -95.10724 38952 ft 535 kts 118°
2026-04-21 15:30 45.86868 -95.01611 38946 ft 535 kts 118°
2026-04-21 15:30 45.83010 -94.92593 38944 ft 534 kts 118°
2026-04-21 15:31 45.79128 -94.83540 38941 ft 533 kts 118°
2026-04-21 15:31 45.75270 -94.74575 38942 ft 532 kts 118°
2026-04-21 15:32 45.71382 -94.65573 38942 ft 532 kts 119°
2026-04-21 15:32 45.67494 -94.56604 38938 ft 531 kts 119°
2026-04-21 15:33 45.63614 -94.47678 38938 ft 530 kts 119°
2026-04-21 15:33 45.59750 -94.38820 38935 ft 529 kts 119°
2026-04-21 15:34 45.55857 -94.29920 38935 ft 527 kts 120°
2026-04-21 15:34 45.51984 -94.21091 38938 ft 526 kts 120°
2026-04-21 15:35 45.48116 -94.12305 38941 ft 525 kts 120°
2026-04-21 15:35 45.44234 -94.03513 38941 ft 525 kts 120°
2026-04-21 15:36 45.40345 -93.94745 38941 ft 524 kts 120°
2026-04-21 15:36 45.36467 -93.86015 38942 ft 523 kts 120°
2026-04-21 15:37 45.32603 -93.77347 38942 ft 523 kts 121°
2026-04-21 15:37 45.28708 -93.68646 38938 ft 523 kts 121°
2026-04-21 15:38 45.24813 -93.59973 38932 ft 521 kts 121°
2026-04-21 15:38 45.20927 -93.51341 38931 ft 521 kts 121°
2026-04-21 15:39 45.17054 -93.42766 38926 ft 521 kts 121°
2026-04-21 15:39 45.12807 -93.34451 38928 ft 521 kts 129°
2026-04-21 15:40 45.08030 -93.26738 38923 ft 521 kts 131°
2026-04-21 15:40 45.03230 -93.19150 38928 ft 520 kts 131°
2026-04-21 15:41 44.98394 -93.11509 38923 ft 521 kts 131°
2026-04-21 15:41 44.93590 -93.03915 38918 ft 520 kts 131°
2026-04-21 15:42 44.88794 -92.96347 38916 ft 519 kts 131°
2026-04-21 15:42 44.83986 -92.88778 38917 ft 519 kts 131°
2026-04-21 15:43 44.79204 -92.81272 38921 ft 519 kts 131°
2026-04-21 15:43 44.74400 -92.73751 38911 ft 519 kts 131°
2026-04-21 15:44 44.69559 -92.66196 38915 ft 520 kts 131°
2026-04-21 15:44 44.64725 -92.58672 38909 ft 520 kts 131°
2026-04-21 15:45 44.59891 -92.51167 38908 ft 520 kts 131°
2026-04-21 15:45 44.55062 -92.43690 38917 ft 519 kts 131°
2026-04-21 15:46 44.50228 -92.36225 38907 ft 519 kts 131°
2026-04-21 15:46 44.45398 -92.28787 38903 ft 519 kts 132°
2026-04-21 15:47 44.40544 -92.21330 38900 ft 519 kts 132°
2026-04-21 15:47 44.35694 -92.13900 38896 ft 518 kts 132°
2026-04-21 15:48 44.30870 -92.06531 38892 ft 517 kts 132°
2026-04-21 15:48 44.26017 -91.99136 38889 ft 518 kts 132°
2026-04-21 15:49 44.21178 -91.91781 38891 ft 518 kts 132°
2026-04-21 15:49 44.16305 -91.84396 38897 ft 517 kts 132°
2026-04-21 15:50 44.11459 -91.77071 38903 ft 517 kts 132°
2026-04-21 15:50 44.06586 -91.69725 38911 ft 517 kts 132°
2026-04-21 15:51 44.01716 -91.62404 38906 ft 517 kts 132°
2026-04-21 15:51 43.96833 -91.55087 38909 ft 516 kts 132°
2026-04-21 15:52 43.92001 -91.47860 38903 ft 515 kts 131°
2026-04-21 15:52 43.87322 -91.40282 38900 ft 515 kts 129°
2026-04-21 15:53 43.82689 -91.32632 38901 ft 515 kts 130°
2026-04-21 15:53 43.78060 -91.25024 38900 ft 515 kts 130°
2026-04-21 15:54 43.73444 -91.17470 38901 ft 515 kts 130°
2026-04-21 15:54 43.68833 -91.09950 38903 ft 514 kts 130°
2026-04-21 15:55 43.64241 -91.02480 38906 ft 514 kts 130°
2026-04-21 15:55 43.59622 -90.94984 38907 ft 513 kts 130°
2026-04-21 15:56 43.55009 -90.87520 38910 ft 512 kts 130°
2026-04-21 15:56 43.50389 -90.80060 38909 ft 511 kts 130°
2026-04-21 15:57 43.45800 -90.72670 38905 ft 511 kts 130°
2026-04-21 15:57 43.41187 -90.65263 38915 ft 511 kts 130°
2026-04-21 15:58 43.36565 -90.57856 38913 ft 511 kts 130°
2026-04-21 15:58 43.31940 -90.50467 38917 ft 511 kts 130°
2026-04-21 15:59 43.27319 -90.43101 38923 ft 510 kts 130°
2026-04-21 15:59 43.22712 -90.35780 38922 ft 510 kts 130°
2026-04-21 16:00 43.18070 -90.28420 38925 ft 509 kts 131°
2026-04-21 16:00 43.13457 -90.21130 38931 ft 508 kts 131°
2026-04-21 16:01 43.08830 -90.13839 38935 ft 508 kts 131°
2026-04-21 16:01 43.04231 -90.06606 38925 ft 507 kts 131°
2026-04-21 16:02 42.99722 -89.99168 38926 ft 506 kts 127°
2026-04-21 16:02 42.95784 -89.91301 38921 ft 506 kts 123°
2026-04-21 16:03 42.91908 -89.83263 38928 ft 507 kts 123°
2026-04-21 16:03 42.88021 -89.75251 38936 ft 507 kts 123°
2026-04-21 16:04 42.84154 -89.67323 38940 ft 507 kts 123°
2026-04-21 16:04 42.80238 -89.59318 38943 ft 506 kts 123°
2026-04-21 16:05 42.76351 -89.51397 38948 ft 505 kts 123°
2026-04-21 16:05 42.72443 -89.43453 38952 ft 505 kts 123°
2026-04-21 16:06 42.68550 -89.35563 38952 ft 505 kts 123°
2026-04-21 16:06 42.64635 -89.27649 38955 ft 506 kts 124°
2026-04-21 16:07 42.60712 -89.19739 38954 ft 506 kts 124°
2026-04-21 16:07 42.56775 -89.11822 38956 ft 506 kts 124°
2026-04-21 16:08 42.50907 -89.00062 38959 ft 506 kts 124°
2026-04-21 16:09 42.46955 -88.92168 38962 ft 506 kts 124°
2026-04-21 16:09 42.43021 -88.84331 38960 ft 506 kts 124°
2026-04-21 16:10 42.39069 -88.76479 38963 ft 506 kts 124°
2026-04-21 16:10 42.35106 -88.68622 38968 ft 506 kts 124°
2026-04-21 16:11 42.31151 -88.60804 38967 ft 506 kts 124°
2026-04-21 16:11 42.27174 -88.52966 38968 ft 506 kts 124°
2026-04-21 16:12 42.23866 -88.46461 38971 ft 506 kts 124°
2026-04-21 16:12 42.19233 -88.37375 38976 ft 507 kts 124°
2026-04-21 16:13 42.15223 -88.29530 38983 ft 508 kts 125°
2026-04-21 16:13 42.11224 -88.21743 38987 ft 508 kts 125°
2026-04-21 16:14 42.07215 -88.13951 38992 ft 507 kts 125°
2026-04-21 16:14 42.03509 -88.05901 39058 ft 508 kts 116°
2026-04-21 16:15 42.01012 -87.97047 39009 ft 507 kts 103°
2026-04-21 16:15 41.99897 -87.87749 38987 ft 504 kts 91°
2026-04-21 16:16 41.99791 -87.78391 39005 ft 503 kts 87°
2026-04-21 16:16 41.99776 -87.69070 39015 ft 503 kts 88°
2026-04-21 16:17 41.99721 -87.59665 39004 ft 502 kts 88°
2026-04-21 16:17 41.99640 -87.50317 39009 ft 502 kts 88°
2026-04-21 16:18 41.99546 -87.40992 39011 ft 502 kts 88°
2026-04-21 16:18 41.99444 -87.31636 39001 ft 502 kts 89°
2026-04-21 16:19 41.99334 -87.22258 39001 ft 503 kts 88°
2026-04-21 16:19 41.99217 -87.12928 39009 ft 503 kts 89°
2026-04-21 16:20 41.99091 -87.03531 39000 ft 503 kts 89°
2026-04-21 16:20 41.98956 -86.94159 39003 ft 503 kts 89°
2026-04-21 16:21 41.98812 -86.84779 39007 ft 503 kts 89°
2026-04-21 16:21 41.98663 -86.75419 39007 ft 503 kts 89°
2026-04-21 16:22 41.98533 -86.67629 39007 ft 502 kts 89°
2026-04-21 16:22 41.98341 -86.56692 38993 ft 502 kts 89°
2026-04-21 16:23 41.98169 -86.47342 38999 ft 503 kts 89°
2026-04-21 16:23 41.97989 -86.37968 39012 ft 503 kts 89°
2026-04-21 16:24 41.97802 -86.28628 39014 ft 503 kts 89°
2026-04-21 16:24 41.97606 -86.19270 39015 ft 503 kts 89°
2026-04-21 16:25 41.97400 -86.09882 39008 ft 503 kts 89°
2026-04-21 16:25 41.97191 -86.00542 39009 ft 504 kts 89°
2026-04-21 16:26 41.96972 -85.91166 39005 ft 504 kts 89°
2026-04-21 16:26 41.96746 -85.81753 39009 ft 505 kts 89°
2026-04-21 16:27 41.96509 -85.72374 39019 ft 505 kts 89°
2026-04-21 16:27 41.96266 -85.62987 39028 ft 505 kts 89°
2026-04-21 16:28 41.96016 -85.53606 39033 ft 505 kts 89°
2026-04-21 16:28 41.95755 -85.44174 39038 ft 504 kts 89°
2026-04-21 16:29 41.95529 -85.36380 39037 ft 503 kts 89°
2026-04-21 16:29 41.95206 -85.25440 39037 ft 503 kts 90°
2026-04-21 16:30 41.95116 -85.16100 39032 ft 503 kts 88°
2026-04-21 16:30 41.95112 -85.06745 39032 ft 503 kts 88°
2026-04-21 16:31 41.95089 -84.97383 39038 ft 503 kts 88°
2026-04-21 16:31 41.95049 -84.87987 39034 ft 503 kts 88°
2026-04-21 16:32 41.95000 -84.78642 39044 ft 502 kts 88°
2026-04-21 16:32 41.94945 -84.69305 39055 ft 502 kts 88°
2026-04-21 16:33 41.94881 -84.59969 39058 ft 502 kts 88°
2026-04-21 16:33 41.94808 -84.50610 39061 ft 503 kts 88°
2026-04-21 16:34 41.94728 -84.41241 39055 ft 502 kts 88°
2026-04-21 16:34 41.94641 -84.31863 39051 ft 502 kts 88°
2026-04-21 16:35 41.94546 -84.22581 39056 ft 501 kts 88°
2026-04-21 16:35 41.94444 -84.13245 39062 ft 500 kts 88°
2026-04-21 16:36 41.94334 -84.03923 39069 ft 501 kts 88°
2026-04-21 16:36 41.94216 -83.94629 39071 ft 501 kts 88°
2026-04-21 16:37 41.94090 -83.85320 39072 ft 500 kts 88°
2026-04-21 16:37 41.93956 -83.75988 39079 ft 499 kts 88°
2026-04-21 16:38 41.93813 -83.66750 39086 ft 499 kts 88°
2026-04-21 16:38 41.93659 -83.57444 39089 ft 500 kts 88°
2026-04-21 16:39 41.93508 -83.48180 39091 ft 499 kts 88°
2026-04-21 16:39 41.93478 -83.38865 39091 ft 499 kts 86°
2026-04-21 16:40 41.93461 -83.29513 39090 ft 499 kts 87°
2026-04-21 16:40 41.93421 -83.20286 39095 ft 498 kts 87°
2026-04-21 16:41 41.93375 -83.12530 39095 ft 498 kts 87°
2026-04-21 16:41 41.93304 -83.02049 39091 ft 497 kts 87°
2026-04-21 16:42 41.93233 -82.92780 39092 ft 497 kts 88°
2026-04-21 16:42 41.93153 -82.83510 39095 ft 498 kts 88°
2026-04-21 16:43 41.93065 -82.74238 39097 ft 499 kts 87°
2026-04-21 16:43 41.92970 -82.64998 39098 ft 499 kts 87°
2026-04-21 16:44 41.92867 -82.55689 39098 ft 499 kts 87°
2026-04-21 16:44 41.92760 -82.46454 39105 ft 498 kts 87°
2026-04-21 16:45 41.92643 -82.37193 39102 ft 498 kts 87°
2026-04-21 16:45 41.92516 -82.27875 39110 ft 499 kts 88°
2026-04-21 16:46 41.92382 -82.18609 39110 ft 499 kts 88°
2026-04-21 16:46 41.92240 -82.09332 39119 ft 500 kts 88°
2026-04-21 16:47 41.92086 -82.00021 39116 ft 499 kts 88°
2026-04-21 16:47 41.91926 -81.90703 39121 ft 499 kts 88°
2026-04-21 16:48 41.91642 -81.81448 39126 ft 501 kts 91°
2026-04-21 16:48 41.90873 -81.72135 39130 ft 503 kts 93°
2026-04-21 16:49 41.90037 -81.62891 39131 ft 503 kts 93°
2026-04-21 16:49 41.89198 -81.53599 39128 ft 503 kts 93°
2026-04-21 16:50 41.88353 -81.44273 39139 ft 503 kts 93°
2026-04-21 16:50 41.87507 -81.35027 39160 ft 503 kts 93°
2026-04-21 16:51 41.86650 -81.25729 39162 ft 504 kts 94°
2026-04-21 16:51 41.85781 -81.16407 39147 ft 504 kts 94°
2026-04-21 16:52 41.84907 -81.07127 39142 ft 504 kts 93°
2026-04-21 16:52 41.84175 -80.99387 39148 ft 505 kts 94°
2026-04-21 16:53 41.83134 -80.88493 39148 ft 506 kts 94°
2026-04-21 16:53 41.82233 -80.79183 39155 ft 506 kts 94°
2026-04-21 16:54 41.81321 -80.69855 39174 ft 506 kts 94°
2026-04-21 16:54 41.80399 -80.60528 39178 ft 506 kts 93°
2026-04-21 16:55 41.79485 -80.51179 39171 ft 505 kts 93°
2026-04-21 16:55 41.78572 -80.41879 39152 ft 505 kts 93°
2026-04-21 16:56 41.77644 -80.32587 39169 ft 505 kts 94°
2026-04-21 16:56 41.76699 -80.23255 39166 ft 506 kts 94°
2026-04-21 16:57 41.75742 -80.13917 39179 ft 506 kts 94°
2026-04-21 16:57 41.74783 -80.04626 39173 ft 507 kts 94°
2026-04-21 16:58 41.73811 -79.95293 39177 ft 507 kts 94°
2026-04-21 16:58 41.72833 -79.85970 39176 ft 508 kts 94°
2026-04-21 16:59 41.71851 -79.76664 39176 ft 508 kts 94°
2026-04-21 16:59 41.70856 -79.67346 39184 ft 507 kts 94°
2026-04-21 17:00 41.69854 -79.58032 39180 ft 507 kts 94°
2026-04-21 17:00 41.69014 -79.50270 39180 ft 508 kts 94°
2026-04-21 17:01 41.67825 -79.39394 39180 ft 507 kts 94°
2026-04-21 17:01 41.66794 -79.30057 39178 ft 508 kts 94°
2026-04-21 17:02 41.65756 -79.20737 39179 ft 509 kts 94°
2026-04-21 17:02 41.64731 -79.11449 39182 ft 508 kts 94°
2026-04-21 17:03 41.63696 -79.02147 39182 ft 508 kts 94°
2026-04-21 17:03 41.62644 -78.92835 39182 ft 508 kts 94°
2026-04-21 17:04 41.61575 -78.83459 39181 ft 509 kts 94°
2026-04-21 17:04 41.60506 -78.74168 39180 ft 508 kts 94°
2026-04-21 17:05 41.59430 -78.64877 39188 ft 509 kts 94°
2026-04-21 17:05 41.58338 -78.55534 39190 ft 509 kts 94°
2026-04-21 17:06 41.57246 -78.46246 39195 ft 508 kts 94°
2026-04-21 17:06 41.56140 -78.36924 39196 ft 508 kts 94°
2026-04-21 17:07 41.55220 -78.29219 39206 ft 508 kts 95°
2026-04-21 17:07 41.53914 -78.18359 39210 ft 508 kts 95°
2026-04-21 17:08 41.52786 -78.09082 39208 ft 509 kts 95°
2026-04-21 17:08 41.51645 -77.99781 39212 ft 509 kts 95°
2026-04-21 17:09 41.49781 -77.85851 39217 ft 510 kts 96°
2026-04-21 17:09 41.48461 -77.76615 39215 ft 510 kts 96°
2026-04-21 17:10 41.47127 -77.67320 39219 ft 511 kts 96°
2026-04-21 17:10 41.45807 -77.58110 39218 ft 510 kts 96°
2026-04-21 17:11 41.44464 -77.48792 39214 ft 510 kts 96°
2026-04-21 17:11 41.43130 -77.39592 39225 ft 510 kts 96°
2026-04-21 17:12 41.41771 -77.30293 39233 ft 510 kts 96°
2026-04-21 17:12 41.40418 -77.21096 39253 ft 510 kts 96°
2026-04-21 17:13 41.39053 -77.11862 39265 ft 510 kts 96°
2026-04-21 17:13 41.37671 -77.02587 39109 ft 512 kts 96°
2026-04-21 17:14 41.36983 -76.97997 38642 ft 513 kts 96°
2026-04-21 17:14 41.36282 -76.93349 38164 ft 511 kts 96°
2026-04-21 17:14 41.35580 -76.88708 37690 ft 511 kts 96°
2026-04-21 17:14 41.34880 -76.84068 37217 ft 510 kts 96°
2026-04-21 17:15 41.34142 -76.79469 36582 ft 512 kts 98°
2026-04-21 17:15 41.33216 -76.74948 35956 ft 515 kts 102°
2026-04-21 17:15 41.32070 -76.70415 35358 ft 518 kts 104°
2026-04-21 17:15 41.30867 -76.65922 34778 ft 520 kts 104°
2026-04-21 17:16 41.29650 -76.61430 34157 ft 521 kts 104°
2026-04-21 17:16 41.28416 -76.56879 33457 ft 522 kts 104°
2026-04-21 17:16 41.27200 -76.52383 32740 ft 523 kts 104°
2026-04-21 17:16 41.25964 -76.47798 31988 ft 525 kts 104°
2026-04-21 17:17 41.24737 -76.43261 31322 ft 524 kts 104°
2026-04-21 17:17 41.23525 -76.38782 30910 ft 518 kts 104°
2026-04-21 17:17 41.22299 -76.34266 30463 ft 514 kts 104°
2026-04-21 17:17 41.21099 -76.29853 29942 ft 510 kts 104°
2026-04-21 17:18 41.19897 -76.25427 29429 ft 507 kts 104°
2026-04-21 17:18 41.18706 -76.21044 28925 ft 503 kts 104°
2026-04-21 17:18 41.17519 -76.16671 28409 ft 500 kts 104°
2026-04-21 17:18 41.16352 -76.12392 27903 ft 497 kts 104°
2026-04-21 17:19 41.15181 -76.08108 27406 ft 494 kts 104°
2026-04-21 17:19 41.14014 -76.03852 26925 ft 490 kts 104°
2026-04-21 17:19 41.12850 -75.99588 26440 ft 487 kts 104°
2026-04-21 17:19 41.11710 -75.95412 25962 ft 483 kts 104°
2026-04-21 17:20 41.10576 -75.91277 25419 ft 480 kts 105°
2026-04-21 17:20 41.09425 -75.87095 24783 ft 478 kts 105°
2026-04-21 17:20 41.08290 -75.82987 24443 ft 475 kts 105°
2026-04-21 17:20 41.07157 -75.78902 24241 ft 472 kts 105°
2026-04-21 17:21 41.06031 -75.74857 23995 ft 470 kts 105°
2026-04-21 17:21 41.04912 -75.70835 23481 ft 467 kts 105°
2026-04-21 17:21 41.03792 -75.66818 22755 ft 462 kts 105°
2026-04-21 17:21 41.02683 -75.62845 22050 ft 457 kts 105°
2026-04-21 17:22 41.01956 -75.60242 21586 ft 453 kts 105°
2026-04-21 17:22 41.00520 -75.55087 20638 ft 446 kts 104°
2026-04-21 17:22 40.99451 -75.51244 19924 ft 441 kts 104°
2026-04-21 17:22 40.98414 -75.47521 19241 ft 436 kts 104°
2026-04-21 17:23 40.97372 -75.43796 18562 ft 431 kts 105°
2026-04-21 17:23 40.96337 -75.40105 17882 ft 426 kts 105°
2026-04-21 17:23 40.95306 -75.36437 17200 ft 421 kts 105°
2026-04-21 17:23 40.94291 -75.32832 16523 ft 416 kts 105°
2026-04-21 17:24 40.93295 -75.29308 16105 ft 404 kts 106°
2026-04-21 17:24 40.92334 -75.25921 15803 ft 388 kts 106°
2026-04-21 17:24 40.91400 -75.22633 15492 ft 372 kts 106°
2026-04-21 17:24 40.90515 -75.19518 15205 ft 357 kts 106°
2026-04-21 17:25 40.89664 -75.16525 14894 ft 343 kts 106°
2026-04-21 17:25 40.88831 -75.13581 14403 ft 338 kts 106°
2026-04-21 17:25 40.88010 -75.10688 13851 ft 335 kts 106°
2026-04-21 17:25 40.87198 -75.07809 13294 ft 332 kts 106°
2026-04-21 17:26 40.86402 -75.04976 12754 ft 329 kts 106°
2026-04-21 17:26 40.85611 -75.02161 12204 ft 325 kts 106°
2026-04-21 17:26 40.84825 -74.99370 11672 ft 322 kts 107°
2026-04-21 17:26 40.84052 -74.96648 11137 ft 319 kts 107°
2026-04-21 17:27 40.83277 -74.93897 10621 ft 315 kts 108°
2026-04-21 17:27 40.82488 -74.91220 10132 ft 312 kts 111°
2026-04-21 17:27 40.81525 -74.88675 9665 ft 309 kts 120°
2026-04-21 17:27 40.80357 -74.86359 9332 ft 300 kts 127°
2026-04-21 17:28 40.79096 -74.84228 9101 ft 288 kts 126°
2026-04-21 17:28 40.77954 -74.82099 8867 ft 278 kts 122°
2026-04-21 17:28 40.76917 -74.80003 8517 ft 273 kts 121°
2026-04-21 17:28 40.75904 -74.77895 8141 ft 269 kts 122°
2026-04-21 17:29 40.74908 -74.75816 7763 ft 266 kts 123°
2026-04-21 17:29 40.73929 -74.73785 7435 ft 263 kts 123°
2026-04-21 17:29 40.72943 -74.71749 7228 ft 261 kts 123°
2026-04-21 17:29 40.71971 -74.69756 7046 ft 259 kts 122°
2026-04-21 17:30 40.71002 -74.67770 6880 ft 256 kts 122°
2026-04-21 17:30 40.70043 -74.65794 6610 ft 257 kts 121°
2026-04-21 17:30 40.69103 -74.63805 6436 ft 254 kts 121°
2026-04-21 17:30 40.68174 -74.61861 6327 ft 248 kts 122°
2026-04-21 17:31 40.67248 -74.59952 6195 ft 244 kts 122°
2026-04-21 17:31 40.66331 -74.58070 6006 ft 242 kts 122°
2026-04-21 17:31 40.65432 -74.56229 5808 ft 241 kts 121°
2026-04-21 17:31 40.64530 -74.54356 5617 ft 240 kts 121°
2026-04-21 17:32 40.63927 -74.53104 5478 ft 239 kts 121°
2026-04-21 17:32 40.62748 -74.50653 5214 ft 238 kts 121°
2026-04-21 17:32 40.61870 -74.48824 5021 ft 237 kts 122°
2026-04-21 17:32 40.60983 -74.47000 4889 ft 232 kts 122°
2026-04-21 17:33 40.60121 -74.45230 4760 ft 226 kts 122°
2026-04-21 17:33 40.59274 -74.43490 4566 ft 224 kts 122°
2026-04-21 17:33 40.58435 -74.41766 4342 ft 223 kts 122°
2026-04-21 17:33 40.57604 -74.40059 4195 ft 219 kts 122°
2026-04-21 17:34 40.56795 -74.38399 4066 ft 213 kts 122°
2026-04-21 17:34 40.56015 -74.36796 3891 ft 204 kts 122°
2026-04-21 17:34 40.55265 -74.35258 3727 ft 195 kts 122°
2026-04-21 17:34 40.54546 -74.33781 3562 ft 187 kts 122°
2026-04-21 17:35 40.53860 -74.32375 3408 ft 179 kts 122°
2026-04-21 17:35 40.53188 -74.30997 3185 ft 177 kts 122°
2026-04-21 17:35 40.52562 -74.29630 2963 ft 174 kts 110°
2026-04-21 17:35 40.52472 -74.28110 2803 ft 165 kts 74°
2026-04-21 17:36 40.53032 -74.26838 2564 ft 160 kts 40°
2026-04-21 17:36 40.53966 -74.26093 2308 ft 158 kts 24°
2026-04-21 17:36 40.54948 -74.25497 2088 ft 150 kts 23°
2026-04-21 17:36 40.55893 -74.24944 1869 ft 144 kts 23°
2026-04-21 17:37 40.56818 -74.24393 1697 ft 139 kts 24°
2026-04-21 17:37 40.57710 -74.23842 1699 ft 142 kts 25°
2026-04-21 17:37 40.58301 -74.23468 1694 ft 142 kts 25°
2026-04-21 17:37 40.59494 -74.22705 1689 ft 142 kts 25°
2026-04-21 17:38 40.60378 -74.22137 1688 ft 141 kts 25°
2026-04-21 17:38 40.61264 -74.21568 1549 ft 142 kts 25°
2026-04-21 17:38 40.62147 -74.21004 1358 ft 140 kts 25°
2026-04-21 17:38 40.63034 -74.20435 1167 ft 140 kts 25°
2026-04-21 17:39 40.63909 -74.19876 970 ft 140 kts 25°
2026-04-21 17:39 40.64809 -74.19299 776 ft 139 kts 25°
2026-04-21 17:39 40.65679 -74.18752 586 ft 139 kts 25°
2026-04-21 17:39 40.66557 -74.18198 392 ft 138 kts 26°
2026-04-21 17:40 40.67423 -74.17638 184 ft 137 kts 26°
2026-04-21 17:40 40.68269 -74.17094 34 ft 134 kts 24°
2026-04-21 17:40 40.69018 -74.16625 31 ft 95 kts 25°
2026-04-21 17:40 40.69454 -74.16349 31 ft 45 kts 26°
2026-04-21 17:41 40.69663 -74.16296 31 ft 22 kts 355°
2026-04-21 17:41 40.69736 -74.16353 31 ft 7 kts 272°
2026-04-21 17:41 40.69733 -74.16390 31 ft 4 kts 266°
2026-04-21 17:41 40.69741 -74.16447 32 ft 8 kts 290°
2026-04-21 17:42 40.69766 -74.16524 32 ft 10 kts 292°
2026-04-21 17:42 40.69797 -74.16606 32 ft 8 kts 299°
2026-04-21 17:42 40.69787 -74.16670 32 ft 9 kts 219°
2026-04-21 17:42 40.69725 -74.16716 32 ft 11 kts 207°
2026-04-21 17:43 40.69675 -74.16792 32 ft 12 kts 252°
2026-04-21 17:43 40.69635 -74.16891 32 ft 13 kts 213°
2026-04-21 17:43 40.69549 -74.16947 32 ft 14 kts 206°
2026-04-21 17:43 40.69455 -74.17008 32 ft 15 kts 206°
2026-04-21 17:44 40.69356 -74.17071 32 ft 16 kts 206°
2026-04-21 17:44 40.69276 -74.17121 32 ft 11 kts 206°
2026-04-21 17:44 40.69199 -74.17170 32 ft 12 kts 205°
2026-04-21 17:44 40.69114 -74.17223 32 ft 14 kts 206°
2026-04-21 17:45 40.69021 -74.17283 32 ft 15 kts 206°
2026-04-21 17:45 40.68920 -74.17346 32 ft 12 kts 206°
2026-04-21 17:45 40.68842 -74.17396 32 ft 13 kts 205°
2026-04-21 17:45 40.68755 -74.17451 32 ft 14 kts 206°
2026-04-21 17:46 40.68660 -74.17512 32 ft 15 kts 206°
2026-04-21 17:46 40.68558 -74.17577 32 ft 16 kts 205°
2026-04-21 17:46 40.68453 -74.17643 32 ft 17 kts 206°
2026-04-21 17:46 40.68369 -74.17696 32 ft 10 kts 206°
2026-04-21 17:47 40.68322 -74.17757 32 ft 10 kts 269°
2026-04-21 17:47 40.68351 -74.17853 32 ft 12 kts 297°
2026-04-21 17:47 40.68389 -74.17958 32 ft 13 kts 296°
2026-04-21 17:47 40.68418 -74.18036 32 ft 8 kts 296°
2026-04-21 17:48 40.68436 -74.18084 32 ft 9 kts 296°
2026-04-21 17:48 40.68486 -74.18188 32 ft 8 kts 296°
2026-04-21 17:48 40.68499 -74.18244 32 ft 2 kts 281°
2026-04-21 17:48 40.68501 -74.18259 32 ft 2 kts 279°
2026-04-21 17:49 40.68504 -74.18297 31 ft 5 kts 275°
2026-04-21 17:49 40.68507 -74.18359 31 ft 7 kts 275°
2026-04-21 17:49 40.68512 -74.18439 31 ft 9 kts 275°
2026-04-21 17:49 40.68516 -74.18510 32 ft 4 kts 268°
2026-04-21 17:50 40.68513 -74.18519 32 ft 0 kts 233°
2026-04-21 17:50 40.68510 -74.18523 32 ft 2 kts 233°
2026-04-21 17:50 40.68495 -74.18544 31 ft 3 kts 212°
2026-04-21 17:51 40.68483 -74.18548 31 ft 1 kts 182°
2026-04-21 17:51 40.68473 -74.18546 31 ft 1 kts 177°
2026-04-21 17:51 40.68462 -74.18548 31 ft 0 kts 187°